GEFSMA_prec_meanprecacc_174.txt.gz
Total_Precipitation_Accumulation
1.85 1.95 1.87 1.86 1.76 1.74 1.71 1.55 1.46 1.42 1.33 1.20 0.97 0.92 0.95 0.87 0.92 1.07 1.14 1.18 1.21 1.48 1.85 2.02 1.92 1.70 1.65 1.65 1.67 1.62 1.46 1.31 1.16 1.03 0.89 0.79 0.75 0.73 0.65 0.62 0.61 0.56 0.54
2.07 2.14 2.13 2.11 2.07 2.03 2.11 1.90 1.70 1.80 1.66 1.58 1.40 1.31 1.25 1.23 1.23 1.33 1.50 1.45 1.25 1.31 1.62 1.98 2.11 2.08 2.06 1.99 1.89 1.74 1.62 1.51 1.42 1.33 1.20 1.04 0.92 0.84 0.78 0.75 0.69 0.64 0.61
2.18 2.26 2.44 2.39 2.32 2.28 2.31 2.27 2.13 2.16 1.96 1.84 1.72 1.60 1.55 1.62 1.61 1.54 1.67 1.82 1.58 1.48 1.49 1.65 1.86 2.03 2.12 2.16 2.12 2.02 1.86 1.72 1.63 1.60 1.51 1.37 1.23 1.12 1.06 0.96 0.87 0.83 0.79
2.30 2.54 2.66 2.65 2.62 2.52 2.62 2.73 2.66 2.47 2.33 2.15 1.99 1.74 1.66 1.77 1.80 1.79 1.80 1.94 2.07 1.93 1.80 1.65 1.70 1.84 2.03 2.17 2.26 2.30 2.20 2.01 1.85 1.76 1.70 1.63 1.54 1.39 1.24 1.10 1.02 1.00 0.97
2.73 2.86 3.00 3.07 3.07 3.10 3.09 2.94 3.07 2.86 2.77 2.58 2.24 2.03 1.80 1.75 1.84 1.78 1.83 1.82 1.93 1.99 2.01 1.89 1.76 1.77 1.96 2.24 2.32 2.43 2.47 2.39 2.24 2.05 1.88 1.75 1.71 1.62 1.47 1.32 1.21 1.12 1.06
3.38 3.49 3.47 3.51 3.53 3.59 3.44 3.40 3.41 3.15 2.94 2.89 2.46 2.25 2.08 1.90 1.89 1.87 1.82 1.84 1.79 1.70 1.77 1.87 1.97 1.79 1.88 2.01 2.15 2.33 2.53 2.69 2.63 2.43 2.30 2.16 2.01 1.85 1.63 1.45 1.31 1.21 1.14
4.34 4.40 4.29 4.19 4.04 3.93 3.74 3.63 3.46 3.27 3.03 2.95 2.81 2.45 2.01 1.73 1.70 1.62 1.65 1.76 1.76 1.69 1.70 1.79 1.87 1.82 1.72 1.72 1.75 1.97 2.27 2.61 2.83 2.78 2.63 2.45 2.19 2.00 1.84 1.67 1.52 1.39 1.27
5.23 5.32 5.25 5.03 4.78 4.46 4.02 3.69 3.51 3.34 3.05 3.05 3.01 2.90 2.34 1.93 1.61 1.31 1.39 1.44 1.49 1.60 1.58 1.58 1.67 1.78 1.72 1.71 1.57 1.63 1.81 2.10 2.51 2.77 2.77 2.59 2.41 2.24 2.12 1.98 1.83 1.68 1.51
5.38 5.58 5.54 5.28 4.89 4.32 3.83 3.66 3.58 3.45 3.26 3.17 3.01 3.06 2.65 2.24 1.89 1.47 1.25 1.18 1.24 1.28 1.29 1.35 1.43 1.55 1.54 1.60 1.55 1.56 1.59 1.71 2.07 2.41 2.42 2.24 2.13 2.07 2.05 2.02 1.97 1.86 1.76
5.17 5.08 4.94 4.53 4.10 3.77 3.49 3.38 3.37 3.20 3.18 3.09 3.01 2.71 2.48 2.23 2.02 1.69 1.36 1.17 1.17 1.16 1.16 1.16 1.24 1.44 1.52 1.53 1.51 1.50 1.48 1.55 1.75 1.98 2.10 2.05 1.95 1.94 1.98 2.01 1.99 1.99 2.00
4.36 4.01 3.67 3.40 3.27 3.09 2.88 2.78 2.75 2.69 2.56 2.51 2.53 2.47 2.41 2.19 1.90 1.70 1.50 1.33 1.30 1.20 1.17 1.23 1.29 1.38 1.47 1.51 1.53 1.54 1.52 1.45 1.50 1.56 1.66 1.71 1.75 1.80 1.88 1.97 2.04 2.06 2.06
3.62 3.17 2.91 2.67 2.52 2.36 2.15 2.04 2.04 2.08 2.15 2.20 2.24 2.21 2.18 2.16 2.04 1.95 1.81 1.62 1.48 1.42 1.32 1.27 1.34 1.40 1.54 1.65 1.67 1.85 1.60 1.44 1.42 1.41 1.39 1.43 1.50 1.56 1.65 1.80 1.94 2.02 2.12
3.25 2.79 2.37 2.16 1.95 1.77 1.67 1.61 1.58 1.60 1.69 1.80 1.92 1.97 1.97 1.94 1.91 1.94 2.01 1.86 1.64 1.50 1.37 1.34 1.39 1.47 1.48 1.59 1.76 1.93 1.68 1.58 1.46 1.35 1.26 1.23 1.26 1.32 1.40 1.46 1.60 1.73 1.88
2.67 2.32 1.90 1.57 1.37 1.23 1.17 1.20 1.25 1.30 1.33 1.39 1.50 1.65 1.68 1.66 1.72 1.79 1.88 1.95 1.92 1.69 1.42 1.38 1.49 1.54 1.53 1.52 1.72 1.78 1.52 1.57 1.41 1.33 1.28 1.22 1.17 1.16 1.22 1.29 1.44 1.55 1.59
1.85 1.63 1.40 1.19 1.07 1.02 0.99 0.98 0.98 0.99 1.06 1.13 1.20 1.31 1.44 1.49 1.52 1.59 1.70 1.80 1.87 1.82 1.64 1.47 1.48 1.48 1.47 1.49 1.65 1.32 1.23 1.41 1.31 1.25 1.21 1.14 1.07 1.04 1.03 1.07 1.13 1.22 1.27
1.18 1.12 1.02 0.96 0.89 0.82 0.83 0.85 0.82 0.81 0.90 0.93 0.94 1.02 1.13 1.23 1.32 1.42 1.54 1.62 1.65 1.65 1.62 1.45 1.39 1.40 1.38 1.34 1.45 1.12 1.10 1.28 1.16 1.07 1.01 1.00 0.98 0.95 0.93 0.94 0.98 1.02 1.03
0.89 0.87 0.83 0.82 0.79 0.77 0.75 0.73 0.72 0.70 0.76 0.87 0.95 1.00 1.04 1.08 1.14 1.18 1.24 1.32 1.43 1.51 1.60 1.56 1.43 1.39 1.37 1.33 1.25 1.07 0.98 0.93 0.97 1.02 0.95 0.91 0.87 0.84 0.83 0.81 0.75 0.74 0.75
0.80 0.79 0.77 0.78 0.79 0.80 0.80 0.75 0.69 0.67 0.71 0.79 0.85 0.88 0.89 0.88 0.94 1.00 1.07 1.10 1.18 1.27 1.39 1.49 1.42 1.30 1.25 1.23 1.18 1.10 0.93 0.82 0.79 0.84 0.80 0.76 0.74 0.72 0.69 0.67 0.67 0.63 0.59
0.78 0.73 0.70 0.71 0.76 0.76 0.73 0.72 0.68 0.66 0.65 0.69 0.72 0.72 0.74 0.76 0.78 0.81 0.85 0.91 0.96 1.00 1.12 1.18 1.19 1.14 1.10 1.04 1.06 1.02 0.91 0.90 0.76 0.76 0.68 0.63 0.60 0.58 0.55 0.52 0.53 0.58 0.56
0.72 0.74 0.72 0.68 0.65 0.61 0.55 0.51 0.50 0.51 0.50 0.52 0.54 0.56 0.62 0.68 0.69 0.71 0.70 0.72 0.76 0.85 0.94 1.01 1.01 1.01 0.99 0.93 0.95 0.98 0.93 0.86 0.76 0.62 0.64 0.55 0.49 0.45 0.45 0.45 0.43 0.42 0.43
0.59 0.58 0.55 0.51 0.43 0.37 0.34 0.32 0.35 0.37 0.39 0.40 0.42 0.42 0.43 0.50 0.56 0.56 0.54 0.60 0.68 0.77 0.82 0.86 0.84 0.81 0.82 0.87 0.88 0.85 0.81 0.76 0.71 0.61 0.63 0.58 0.54 0.53 0.55 0.52 0.46 0.42 0.41
0.60 0.50 0.44 0.41 0.35 0.27 0.28 0.25 0.28 0.34 0.38 0.39 0.41 0.43 0.39 0.40 0.42 0.43 0.46 0.57 0.68 0.71 0.75 0.81 0.79 0.79 0.79 0.79 0.80 0.80 0.83 0.83 0.82 0.67 0.65 0.60 0.54 0.59 0.56 0.52 0.47 0.41 0.38
0.63 0.55 0.43 0.37 0.36 0.30 0.25 0.23 0.26 0.34 0.40 0.40 0.40 0.41 0.35 0.34 0.39 0.41 0.44 0.50 0.55 0.56 0.64 0.78 0.87 0.84 0.83 0.85 0.88 0.84 0.88 0.91 0.86 0.76 0.82 0.76 0.58 0.54 0.44 0.39 0.38 0.33 0.34
0.60 0.56 0.49 0.42 0.38 0.29 0.22 0.19 0.21 0.30 0.39 0.39 0.38 0.40 0.42 0.41 0.41 0.42 0.43 0.46 0.52 0.57 0.60 0.65 0.80 0.79 0.74 0.77 0.82 0.85 0.89 0.89 0.86 0.82 0.88 0.89 0.64 0.54 0.42 0.48 0.44 0.32 0.27
0.54 0.52 0.48 0.45 0.45 0.36 0.21 0.16 0.18 0.32 0.42 0.38 0.32 0.30 0.33 0.37 0.39 0.38 0.42 0.52 0.57 0.62 0.52 0.55 0.64 0.71 0.73 0.73 0.71 0.76 0.93 1.06 1.01 0.82 0.80 0.87 0.72 0.61 0.52 0.51 0.46 0.37 0.30
0.52 0.45 0.41 0.42 0.41 0.37 0.24 0.19 0.20 0.32 0.41 0.38 0.35 0.32 0.29 0.30 0.31 0.31 0.40 0.54 0.64 0.64 0.57 0.60 0.74 0.83 0.81 0.87 0.82 0.83 1.03 1.09 1.04 0.98 0.82 0.84 0.80 0.77 0.73 0.56 0.50 0.46 0.42

GEFSMA_prec_meanprecacc_180.txt.gz
Total_Precipitation_Accumulation
1.96 2.04 1.96 1.95 1.85 1.82 1.78 1.62 1.52 1.48 1.39 1.24 1.02 0.98 1.01 0.95 1.04 1.22 1.30 1.34 1.36 1.62 1.99 2.20 2.09 1.82 1.75 1.74 1.75 1.69 1.53 1.38 1.24 1.11 0.97 0.86 0.81 0.78 0.70 0.66 0.65 0.59 0.58
2.17 2.23 2.22 2.20 2.15 2.10 2.17 1.97 1.76 1.85 1.71 1.63 1.43 1.34 1.28 1.28 1.29 1.42 1.64 1.64 1.43 1.43 1.73 2.10 2.24 2.19 2.15 2.07 1.96 1.81 1.69 1.57 1.48 1.41 1.29 1.13 1.01 0.92 0.85 0.81 0.74 0.67 0.64
2.25 2.34 2.52 2.48 2.42 2.35 2.39 2.34 2.18 2.21 2.00 1.88 1.75 1.62 1.57 1.65 1.67 1.62 1.76 1.93 1.74 1.63 1.60 1.75 1.97 2.13 2.22 2.25 2.20 2.10 1.93 1.79 1.69 1.66 1.60 1.46 1.31 1.21 1.14 1.03 0.94 0.90 0.85
2.37 2.59 2.72 2.72 2.73 2.63 2.70 2.79 2.72 2.53 2.39 2.21 2.03 1.77 1.68 1.80 1.84 1.85 1.88 2.01 2.16 2.02 1.89 1.74 1.79 1.92 2.12 2.26 2.33 2.38 2.28 2.09 1.92 1.82 1.77 1.73 1.63 1.48 1.33 1.19 1.11 1.09 1.04
2.80 2.92 3.06 3.12 3.12 3.16 3.15 3.00 3.15 2.96 2.86 2.68 2.31 2.08 1.83 1.79 1.86 1.81 1.88 1.88 2.01 2.06 2.08 1.97 1.82 1.85 2.04 2.32 2.40 2.52 2.55 2.47 2.32 2.13 1.96 1.83 1.81 1.72 1.57 1.43 1.32 1.22 1.15
3.46 3.56 3.53 3.56 3.58 3.64 3.49 3.47 3.49 3.24 3.02 2.97 2.53 2.31 2.12 1.93 1.92 1.90 1.88 1.91 1.84 1.76 1.84 1.95 2.03 1.84 1.95 2.09 2.23 2.42 2.62 2.78 2.71 2.51 2.38 2.24 2.10 1.94 1.71 1.53 1.40 1.32 1.23
4.40 4.46 4.34 4.23 4.08 3.96 3.80 3.70 3.53 3.33 3.10 3.02 2.87 2.50 2.05 1.76 1.72 1.64 1.68 1.80 1.80 1.73 1.78 1.86 1.92 1.86 1.76 1.76 1.81 2.04 2.34 2.70 2.92 2.87 2.72 2.54 2.28 2.09 1.92 1.75 1.59 1.48 1.36
5.30 5.37 5.30 5.07 4.82 4.50 4.06 3.74 3.55 3.39 3.10 3.11 3.06 2.95 2.38 1.96 1.63 1.33 1.41 1.47 1.53 1.64 1.61 1.61 1.71 1.80 1.74 1.74 1.59 1.67 1.86 2.17 2.59 2.87 2.87 2.68 2.49 2.31 2.20 2.08 1.93 1.77 1.60
5.44 5.63 5.59 5.32 4.94 4.38 3.88 3.71 3.63 3.50 3.31 3.23 3.08 3.12 2.68 2.26 1.91 1.49 1.27 1.20 1.26 1.30 1.31 1.37 1.45 1.58 1.56 1.62 1.58 1.59 1.64 1.75 2.12 2.49 2.51 2.34 2.23 2.15 2.12 2.09 2.05 1.96 1.86
5.22 5.14 4.99 4.58 4.15 3.83 3.57 3.47 3.46 3.28 3.25 3.15 3.07 2.77 2.53 2.27 2.05 1.71 1.38 1.19 1.19 1.19 1.18 1.18 1.26 1.46 1.54 1.55 1.54 1.52 1.51 1.58 1.79 2.04 2.19 2.15 2.06 2.05 2.06 2.08 2.08 2.07 2.08
4.42 4.08 3.74 3.48 3.36 3.18 2.98 2.88 2.85 2.79 2.65 2.59 2.59 2.54 2.47 2.24 1.94 1.73 1.52 1.34 1.32 1.21 1.20 1.25 1.32 1.40 1.51 1.55 1.55 1.57 1.54 1.47 1.53 1.60 1.72 1.80 1.85 1.91 1.98 2.04 2.11 2.16 2.16
3.68 3.25 3.01 2.76 2.61 2.45 2.25 2.15 2.14 2.20 2.26 2.29 2.32 2.28 2.24 2.20 2.07 1.99 1.84 1.64 1.50 1.45 1.35 1.30 1.37 1.45 1.60 1.70 1.71 1.89 1.64 1.48 1.46 1.44 1.43 1.48 1.56 1.65 1.75 1.89 2.02 2.10 2.20
3.33 2.88 2.45 2.23 2.00 1.81 1.70 1.64 1.62 1.65 1.77 1.88 1.99 2.02 2.01 1.97 1.93 1.96 2.03 1.88 1.67 1.53 1.41 1.38 1.42 1.51 1.55 1.66 1.83 1.99 1.73 1.62 1.50 1.38 1.30 1.27 1.32 1.39 1.47 1.55 1.69 1.82 1.95
2.75 2.39 1.96 1.61 1.39 1.25 1.19 1.22 1.27 1.32 1.36 1.45 1.57 1.70 1.72 1.69 1.74 1.81 1.91 1.98 1.94 1.71 1.45 1.42 1.53 1.57 1.59 1.59 1.78 1.85 1.57 1.63 1.47 1.38 1.32 1.27 1.23 1.23 1.28 1.36 1.50 1.62 1.66
1.91 1.68 1.43 1.22 1.10 1.04 1.01 1.01 1.01 1.01 1.08 1.17 1.26 1.37 1.49 1.52 1.55 1.63 1.74 1.84 1.90 1.85 1.66 1.51 1.51 1.52 1.52 1.55 1.71 1.37 1.28 1.47 1.38 1.32 1.28 1.21 1.14 1.11 1.08 1.12 1.18 1.25 1.31
1.22 1.15 1.05 0.98 0.91 0.84 0.84 0.87 0.84 0.83 0.93 0.97 0.98 1.06 1.17 1.27 1.36 1.45 1.59 1.68 1.71 1.71 1.66 1.50 1.44 1.45 1.43 1.40 1.54 1.20 1.18 1.35 1.23 1.15 1.09 1.07 1.04 1.02 0.98 0.98 1.03 1.07 1.07
0.92 0.90 0.86 0.84 0.81 0.79 0.77 0.75 0.74 0.72 0.79 0.91 0.98 1.03 1.07 1.11 1.17 1.22 1.28 1.36 1.48 1.57 1.67 1.64 1.48 1.43 1.43 1.40 1.33 1.14 1.05 1.01 1.04 1.09 1.03 0.99 0.93 0.89 0.87 0.84 0.79 0.79 0.80
0.83 0.82 0.80 0.80 0.81 0.82 0.82 0.78 0.71 0.69 0.74 0.82 0.88 0.91 0.91 0.92 0.97 1.04 1.11 1.14 1.22 1.33 1.45 1.55 1.47 1.34 1.30 1.29 1.24 1.16 1.00 0.89 0.88 0.92 0.86 0.81 0.80 0.77 0.73 0.70 0.69 0.67 0.65
0.82 0.77 0.73 0.75 0.80 0.80 0.77 0.74 0.69 0.69 0.68 0.72 0.74 0.75 0.77 0.80 0.81 0.85 0.88 0.94 1.00 1.05 1.17 1.23 1.24 1.18 1.14 1.08 1.10 1.08 0.97 0.97 0.84 0.83 0.74 0.67 0.64 0.61 0.59 0.55 0.56 0.61 0.62
0.77 0.77 0.76 0.72 0.70 0.66 0.58 0.53 0.52 0.53 0.52 0.54 0.56 0.58 0.64 0.71 0.71 0.73 0.72 0.75 0.81 0.89 0.98 1.05 1.05 1.04 1.02 0.95 0.97 1.01 0.98 0.91 0.81 0.66 0.67 0.59 0.53 0.48 0.48 0.48 0.46 0.45 0.47
0.65 0.63 0.61 0.57 0.48 0.40 0.37 0.35 0.38 0.40 0.42 0.44 0.45 0.44 0.45 0.51 0.58 0.58 0.56 0.63 0.73 0.83 0.87 0.92 0.89 0.84 0.84 0.88 0.89 0.86 0.83 0.79 0.74 0.64 0.66 0.61 0.58 0.56 0.58 0.54 0.49 0.44 0.43
0.65 0.55 0.49 0.47 0.40 0.31 0.31 0.28 0.30 0.36 0.40 0.41 0.43 0.44 0.41 0.42 0.43 0.43 0.47 0.60 0.74 0.77 0.80 0.86 0.84 0.83 0.82 0.81 0.82 0.82 0.85 0.86 0.85 0.70 0.68 0.63 0.58 0.62 0.60 0.56 0.52 0.45 0.41
0.72 0.66 0.54 0.46 0.43 0.35 0.28 0.25 0.28 0.36 0.41 0.42 0.41 0.41 0.36 0.35 0.39 0.41 0.46 0.53 0.60 0.62 0.68 0.80 0.89 0.87 0.87 0.88 0.90 0.86 0.90 0.93 0.89 0.79 0.84 0.79 0.61 0.56 0.46 0.42 0.44 0.38 0.38
0.69 0.66 0.58 0.51 0.43 0.32 0.23 0.20 0.22 0.32 0.40 0.41 0.41 0.42 0.44 0.43 0.42 0.44 0.45 0.48 0.57 0.63 0.65 0.67 0.81 0.81 0.77 0.80 0.84 0.87 0.91 0.91 0.89 0.85 0.91 0.93 0.67 0.58 0.46 0.51 0.47 0.35 0.31
0.58 0.55 0.50 0.47 0.46 0.37 0.22 0.17 0.19 0.33 0.43 0.41 0.35 0.33 0.37 0.41 0.43 0.42 0.45 0.56 0.62 0.67 0.56 0.57 0.66 0.72 0.74 0.76 0.73 0.77 0.94 1.07 1.03 0.84 0.83 0.91 0.76 0.65 0.55 0.55 0.50 0.42 0.34
0.53 0.46 0.42 0.42 0.42 0.38 0.25 0.20 0.22 0.33 0.43 0.40 0.36 0.34 0.32 0.33 0.34 0.35 0.44 0.57 0.68 0.68 0.60 0.62 0.76 0.85 0.83 0.89 0.84 0.85 1.05 1.11 1.05 1.00 0.85 0.87 0.84 0.81 0.77 0.59 0.54 0.51 0.48

GEFSMA_prec_meanprecacc_186.txt.gz
Total_Precipitation_Accumulation
2.00 2.08 1.99 1.97 1.87 1.84 1.82 1.67 1.58 1.54 1.45 1.31 1.09 1.05 1.08 1.01 1.08 1.27 1.33 1.37 1.41 1.68 2.08 2.31 2.22 1.97 1.91 1.90 1.91 1.85 1.68 1.52 1.37 1.22 1.07 0.95 0.89 0.85 0.77 0.74 0.72 0.66 0.63
2.20 2.27 2.25 2.22 2.17 2.13 2.20 2.02 1.80 1.89 1.75 1.67 1.48 1.40 1.34 1.35 1.36 1.48 1.69 1.68 1.48 1.49 1.80 2.19 2.35 2.33 2.33 2.25 2.12 1.95 1.80 1.68 1.61 1.54 1.39 1.22 1.10 1.00 0.92 0.89 0.83 0.76 0.72
2.31 2.39 2.57 2.52 2.46 2.40 2.42 2.37 2.22 2.24 2.02 1.90 1.78 1.66 1.61 1.70 1.72 1.67 1.83 2.00 1.79 1.68 1.66 1.81 2.05 2.24 2.38 2.43 2.37 2.24 2.05 1.90 1.80 1.78 1.74 1.59 1.42 1.32 1.24 1.13 1.03 1.00 0.95
2.48 2.71 2.83 2.81 2.79 2.68 2.74 2.82 2.75 2.56 2.41 2.23 2.06 1.82 1.73 1.85 1.88 1.88 1.91 2.06 2.21 2.07 1.93 1.80 1.85 2.00 2.24 2.43 2.50 2.52 2.42 2.23 2.06 1.94 1.89 1.85 1.77 1.61 1.45 1.30 1.22 1.20 1.15
2.93 3.06 3.18 3.21 3.18 3.21 3.19 3.03 3.18 3.00 2.90 2.72 2.33 2.10 1.86 1.81 1.89 1.84 1.92 1.91 2.05 2.10 2.11 2.01 1.88 1.90 2.11 2.42 2.54 2.67 2.69 2.61 2.45 2.25 2.07 1.94 1.92 1.85 1.71 1.55 1.42 1.32 1.26
3.56 3.67 3.63 3.64 3.64 3.69 3.54 3.52 3.54 3.29 3.07 3.01 2.56 2.32 2.13 1.95 1.94 1.92 1.90 1.94 1.89 1.80 1.89 2.00 2.07 1.88 2.00 2.17 2.33 2.53 2.74 2.90 2.84 2.63 2.49 2.34 2.21 2.06 1.82 1.65 1.51 1.42 1.34
4.51 4.57 4.44 4.32 4.16 4.04 3.86 3.75 3.58 3.38 3.14 3.06 2.90 2.52 2.06 1.77 1.74 1.66 1.70 1.83 1.83 1.77 1.80 1.88 1.95 1.88 1.78 1.81 1.88 2.12 2.45 2.82 3.05 2.99 2.84 2.65 2.39 2.20 2.02 1.85 1.70 1.60 1.48
5.39 5.46 5.38 5.16 4.92 4.60 4.15 3.80 3.60 3.43 3.14 3.14 3.09 2.97 2.39 1.97 1.64 1.34 1.42 1.49 1.55 1.66 1.63 1.63 1.73 1.83 1.77 1.76 1.61 1.71 1.93 2.25 2.69 2.99 2.99 2.81 2.61 2.42 2.31 2.18 2.02 1.88 1.71
5.54 5.69 5.64 5.39 5.02 4.46 3.96 3.78 3.69 3.56 3.36 3.27 3.11 3.15 2.71 2.28 1.92 1.50 1.28 1.20 1.27 1.32 1.33 1.39 1.46 1.59 1.58 1.63 1.58 1.61 1.67 1.79 2.19 2.57 2.62 2.46 2.36 2.26 2.22 2.19 2.14 2.05 1.96
5.34 5.22 5.05 4.64 4.21 3.89 3.62 3.52 3.53 3.35 3.31 3.20 3.12 2.81 2.57 2.31 2.09 1.74 1.40 1.21 1.20 1.21 1.22 1.21 1.27 1.47 1.55 1.56 1.55 1.53 1.52 1.59 1.82 2.09 2.25 2.24 2.17 2.17 2.18 2.18 2.17 2.16 2.18
4.53 4.18 3.82 3.54 3.44 3.26 3.04 2.93 2.90 2.85 2.70 2.63 2.64 2.59 2.52 2.28 1.98 1.77 1.55 1.37 1.34 1.24 1.22 1.28 1.33 1.41 1.52 1.56 1.56 1.58 1.55 1.48 1.54 1.62 1.75 1.84 1.92 2.01 2.11 2.18 2.25 2.28 2.27
3.76 3.32 3.09 2.84 2.69 2.52 2.30 2.17 2.16 2.22 2.30 2.33 2.36 2.34 2.30 2.27 2.13 2.03 1.87 1.66 1.52 1.46 1.37 1.32 1.39 1.46 1.61 1.71 1.72 1.90 1.66 1.50 1.47 1.45 1.44 1.50 1.59 1.70 1.84 2.01 2.18 2.27 2.36
3.40 2.95 2.51 2.29 2.05 1.85 1.73 1.66 1.64 1.67 1.79 1.91 2.02 2.06 2.05 2.02 1.99 2.01 2.07 1.90 1.68 1.54 1.42 1.39 1.44 1.53 1.57 1.68 1.85 2.02 1.75 1.65 1.52 1.40 1.31 1.29 1.33 1.42 1.52 1.62 1.80 1.96 2.11
2.81 2.47 2.02 1.66 1.44 1.29 1.22 1.24 1.29 1.34 1.39 1.47 1.60 1.73 1.76 1.72 1.79 1.87 1.95 2.02 1.97 1.73 1.47 1.43 1.55 1.60 1.62 1.61 1.81 1.90 1.62 1.66 1.49 1.39 1.34 1.29 1.25 1.25 1.32 1.41 1.57 1.71 1.78
1.94 1.72 1.48 1.26 1.13 1.08 1.05 1.05 1.04 1.05 1.11 1.20 1.28 1.40 1.53 1.56 1.59 1.66 1.77 1.88 1.94 1.88 1.68 1.53 1.54 1.54 1.55 1.59 1.76 1.43 1.33 1.53 1.43 1.36 1.31 1.24 1.16 1.13 1.12 1.17 1.24 1.32 1.40
1.27 1.20 1.10 1.03 0.96 0.88 0.88 0.91 0.88 0.86 0.96 1.00 1.02 1.11 1.22 1.32 1.40 1.48 1.61 1.70 1.74 1.74 1.70 1.53 1.47 1.47 1.46 1.44 1.59 1.27 1.25 1.44 1.32 1.22 1.15 1.11 1.08 1.07 1.03 1.05 1.11 1.14 1.14
1.00 0.96 0.93 0.89 0.85 0.83 0.80 0.78 0.77 0.75 0.82 0.94 1.02 1.07 1.12 1.15 1.21 1.25 1.30 1.38 1.50 1.60 1.70 1.67 1.52 1.47 1.46 1.43 1.37 1.18 1.10 1.07 1.10 1.17 1.11 1.05 0.98 0.95 0.94 0.91 0.87 0.88 0.88
0.88 0.88 0.86 0.85 0.84 0.85 0.85 0.81 0.75 0.72 0.76 0.85 0.91 0.95 0.96 0.96 0.99 1.06 1.14 1.17 1.25 1.36 1.49 1.58 1.50 1.38 1.35 1.34 1.28 1.20 1.04 0.94 0.93 0.98 0.93 0.86 0.84 0.81 0.77 0.76 0.76 0.74 0.72
0.86 0.82 0.77 0.79 0.84 0.84 0.81 0.78 0.74 0.72 0.70 0.74 0.77 0.78 0.80 0.85 0.85 0.86 0.90 0.96 1.02 1.08 1.21 1.26 1.27 1.22 1.18 1.13 1.16 1.12 1.02 1.02 0.88 0.87 0.80 0.73 0.69 0.66 0.62 0.58 0.61 0.65 0.66
0.80 0.80 0.78 0.75 0.74 0.69 0.61 0.56 0.56 0.57 0.56 0.57 0.59 0.61 0.68 0.75 0.74 0.75 0.74 0.76 0.82 0.91 1.01 1.08 1.08 1.08 1.06 1.00 1.02 1.06 1.03 0.96 0.87 0.72 0.73 0.63 0.57 0.51 0.51 0.51 0.49 0.48 0.50
0.68 0.65 0.63 0.60 0.51 0.43 0.39 0.38 0.41 0.43 0.45 0.46 0.48 0.47 0.49 0.57 0.63 0.61 0.58 0.64 0.75 0.85 0.90 0.95 0.92 0.88 0.88 0.92 0.93 0.89 0.86 0.83 0.79 0.69 0.73 0.65 0.61 0.58 0.60 0.57 0.52 0.47 0.46
0.67 0.57 0.52 0.51 0.44 0.35 0.36 0.33 0.35 0.41 0.45 0.46 0.47 0.48 0.45 0.46 0.46 0.45 0.49 0.61 0.75 0.78 0.82 0.88 0.87 0.87 0.86 0.85 0.85 0.85 0.87 0.89 0.90 0.75 0.73 0.67 0.61 0.65 0.63 0.59 0.54 0.48 0.44
0.74 0.70 0.60 0.54 0.53 0.47 0.40 0.35 0.37 0.44 0.49 0.47 0.46 0.46 0.40 0.38 0.42 0.43 0.47 0.54 0.61 0.63 0.70 0.82 0.91 0.89 0.90 0.92 0.94 0.89 0.94 0.98 0.94 0.83 0.88 0.84 0.65 0.60 0.49 0.45 0.46 0.41 0.41
0.72 0.71 0.66 0.61 0.53 0.42 0.32 0.28 0.28 0.37 0.46 0.46 0.45 0.46 0.48 0.47 0.44 0.46 0.46 0.50 0.59 0.65 0.66 0.69 0.83 0.82 0.79 0.84 0.88 0.92 0.96 0.97 0.94 0.88 0.94 0.96 0.70 0.61 0.49 0.53 0.50 0.37 0.33
0.60 0.57 0.54 0.51 0.49 0.39 0.24 0.19 0.21 0.36 0.46 0.43 0.37 0.36 0.39 0.44 0.45 0.43 0.47 0.58 0.65 0.70 0.59 0.60 0.68 0.75 0.78 0.82 0.80 0.84 1.00 1.13 1.07 0.86 0.85 0.95 0.79 0.68 0.58 0.57 0.52 0.44 0.36
0.55 0.48 0.43 0.43 0.43 0.39 0.26 0.21 0.23 0.35 0.44 0.41 0.38 0.36 0.36 0.37 0.37 0.38 0.47 0.61 0.71 0.71 0.63 0.66 0.80 0.90 0.88 0.95 0.90 0.90 1.11 1.18 1.11 1.04 0.87 0.91 0.87 0.85 0.80 0.62 0.57 0.53 0.50

GEFSMA_prec_meanprecacc_192.txt.gz
Total_Precipitation_Accumulation
2.07 2.14 2.06 2.03 1.93 1.92 1.90 1.78 1.71 1.71 1.63 1.44 1.19 1.15 1.18 1.11 1.16 1.33 1.38 1.41 1.44 1.73 2.15 2.39 2.31 2.07 2.02 2.04 2.06 2.02 1.84 1.68 1.52 1.36 1.19 1.04 0.96 0.91 0.82 0.79 0.77 0.72 0.69
2.29 2.35 2.33 2.28 2.23 2.19 2.27 2.09 1.87 1.99 1.86 1.77 1.56 1.47 1.42 1.46 1.46 1.57 1.76 1.74 1.52 1.53 1.85 2.25 2.42 2.41 2.42 2.35 2.25 2.10 1.94 1.82 1.76 1.68 1.52 1.33 1.18 1.07 0.98 0.94 0.87 0.81 0.78
2.40 2.47 2.65 2.60 2.53 2.46 2.49 2.43 2.27 2.30 2.10 1.99 1.86 1.73 1.68 1.78 1.80 1.75 1.91 2.07 1.85 1.73 1.70 1.86 2.09 2.29 2.45 2.52 2.49 2.38 2.20 2.04 1.94 1.90 1.84 1.69 1.51 1.40 1.32 1.18 1.08 1.05 1.00
2.55 2.79 2.91 2.89 2.88 2.74 2.80 2.88 2.81 2.61 2.47 2.30 2.13 1.89 1.80 1.92 1.93 1.94 1.98 2.13 2.29 2.12 1.97 1.83 1.88 2.04 2.29 2.49 2.59 2.63 2.54 2.37 2.21 2.09 2.01 1.96 1.86 1.70 1.54 1.38 1.27 1.25 1.19
3.04 3.18 3.30 3.33 3.28 3.28 3.25 3.09 3.24 3.06 2.96 2.77 2.38 2.15 1.92 1.87 1.94 1.88 1.97 1.99 2.13 2.17 2.17 2.05 1.91 1.94 2.15 2.47 2.61 2.77 2.81 2.73 2.58 2.39 2.21 2.06 2.04 1.96 1.81 1.64 1.51 1.39 1.32
3.68 3.80 3.78 3.78 3.76 3.79 3.63 3.59 3.60 3.36 3.13 3.07 2.61 2.37 2.18 1.99 1.98 1.96 1.95 1.99 1.95 1.86 1.94 2.05 2.12 1.92 2.04 2.21 2.38 2.60 2.84 3.01 2.95 2.75 2.62 2.47 2.32 2.17 1.94 1.75 1.61 1.50 1.41
4.61 4.67 4.55 4.44 4.27 4.14 3.95 3.85 3.66 3.46 3.21 3.12 2.96 2.58 2.10 1.80 1.77 1.70 1.74 1.88 1.89 1.83 1.87 1.95 2.01 1.94 1.82 1.84 1.92 2.18 2.53 2.91 3.14 3.09 2.94 2.76 2.50 2.32 2.15 1.97 1.80 1.69 1.55
5.49 5.55 5.48 5.26 5.03 4.73 4.26 3.89 3.67 3.49 3.19 3.22 3.17 3.04 2.44 2.01 1.66 1.36 1.44 1.52 1.59 1.72 1.70 1.69 1.79 1.89 1.82 1.81 1.65 1.75 1.98 2.32 2.78 3.08 3.08 2.89 2.69 2.52 2.42 2.29 2.14 1.99 1.81
5.63 5.80 5.76 5.52 5.16 4.59 4.07 3.88 3.77 3.64 3.43 3.34 3.19 3.24 2.78 2.33 1.96 1.52 1.30 1.23 1.31 1.37 1.38 1.45 1.52 1.65 1.63 1.68 1.64 1.65 1.71 1.83 2.24 2.65 2.71 2.56 2.45 2.34 2.30 2.28 2.24 2.16 2.07
5.44 5.33 5.15 4.74 4.33 4.00 3.71 3.60 3.60 3.43 3.39 3.27 3.18 2.89 2.64 2.37 2.15 1.78 1.43 1.25 1.25 1.26 1.26 1.26 1.33 1.53 1.61 1.61 1.59 1.56 1.56 1.63 1.85 2.14 2.33 2.33 2.26 2.25 2.25 2.25 2.25 2.25 2.28
4.61 4.26 3.90 3.63 3.54 3.37 3.16 3.04 2.97 2.89 2.76 2.70 2.71 2.66 2.60 2.35 2.05 1.83 1.61 1.43 1.40 1.31 1.29 1.35 1.40 1.47 1.57 1.60 1.60 1.61 1.58 1.51 1.58 1.66 1.80 1.90 1.99 2.09 2.18 2.25 2.32 2.35 2.35
3.83 3.39 3.15 2.92 2.79 2.62 2.39 2.25 2.22 2.27 2.36 2.39 2.42 2.40 2.37 2.34 2.19 2.09 1.94 1.72 1.59 1.54 1.44 1.39 1.46 1.53 1.67 1.77 1.76 1.93 1.67 1.52 1.49 1.49 1.49 1.54 1.63 1.75 1.90 2.08 2.25 2.36 2.45
3.46 3.01 2.58 2.35 2.11 1.91 1.80 1.73 1.69 1.72 1.84 1.97 2.09 2.13 2.12 2.08 2.04 2.07 2.13 1.96 1.73 1.59 1.47 1.44 1.49 1.59 1.63 1.74 1.92 2.08 1.78 1.66 1.54 1.42 1.34 1.32 1.37 1.45 1.55 1.66 1.85 2.03 2.19
2.85 2.52 2.09 1.73 1.50 1.35 1.29 1.32 1.35 1.39 1.44 1.53 1.65 1.79 1.82 1.79 1.85 1.92 2.00 2.06 2.01 1.76 1.50 1.47 1.58 1.64 1.65 1.65 1.86 1.93 1.65 1.69 1.51 1.41 1.36 1.32 1.28 1.28 1.35 1.44 1.59 1.75 1.83
1.96 1.74 1.52 1.33 1.21 1.15 1.12 1.11 1.11 1.11 1.16 1.25 1.34 1.46 1.59 1.62 1.65 1.73 1.83 1.93 1.99 1.92 1.72 1.57 1.58 1.58 1.59 1.62 1.80 1.46 1.37 1.57 1.46 1.39 1.34 1.26 1.20 1.17 1.15 1.20 1.26 1.34 1.42
1.29 1.23 1.13 1.07 1.02 0.95 0.96 0.99 0.95 0.93 1.01 1.05 1.06 1.15 1.28 1.38 1.46 1.54 1.66 1.76 1.80 1.79 1.74 1.57 1.51 1.51 1.50 1.46 1.62 1.30 1.29 1.48 1.36 1.27 1.20 1.16 1.13 1.11 1.07 1.09 1.15 1.17 1.17
1.03 0.99 0.96 0.93 0.91 0.89 0.87 0.85 0.84 0.82 0.86 0.98 1.07 1.12 1.18 1.22 1.31 1.35 1.37 1.44 1.56 1.66 1.75 1.71 1.56 1.50 1.50 1.47 1.41 1.22 1.14 1.11 1.15 1.21 1.16 1.11 1.04 1.01 1.00 0.97 0.93 0.93 0.92
0.91 0.91 0.91 0.90 0.89 0.91 0.92 0.87 0.79 0.76 0.80 0.88 0.95 1.00 1.01 1.02 1.07 1.17 1.24 1.24 1.31 1.42 1.54 1.62 1.54 1.42 1.38 1.38 1.33 1.26 1.07 0.97 0.96 1.01 0.96 0.91 0.90 0.86 0.82 0.81 0.80 0.78 0.76
0.90 0.86 0.82 0.84 0.89 0.90 0.86 0.83 0.78 0.75 0.74 0.77 0.80 0.82 0.84 0.88 0.89 0.93 0.99 1.04 1.08 1.13 1.25 1.30 1.30 1.26 1.21 1.17 1.20 1.17 1.05 1.06 0.91 0.91 0.83 0.77 0.73 0.70 0.66 0.62 0.63 0.67 0.68
0.85 0.86 0.84 0.82 0.80 0.75 0.65 0.60 0.59 0.60 0.59 0.60 0.61 0.64 0.71 0.79 0.78 0.80 0.80 0.84 0.89 0.98 1.07 1.13 1.12 1.12 1.11 1.04 1.06 1.10 1.07 1.00 0.91 0.75 0.76 0.67 0.61 0.55 0.54 0.54 0.52 0.50 0.52
0.71 0.70 0.68 0.65 0.59 0.50 0.43 0.41 0.44 0.47 0.49 0.50 0.52 0.51 0.53 0.62 0.69 0.67 0.64 0.72 0.83 0.92 0.96 1.01 0.97 0.93 0.92 0.96 0.97 0.93 0.91 0.88 0.84 0.74 0.77 0.69 0.64 0.62 0.63 0.60 0.55 0.49 0.48
0.73 0.62 0.56 0.55 0.50 0.40 0.39 0.35 0.39 0.46 0.51 0.53 0.55 0.55 0.50 0.51 0.52 0.51 0.53 0.66 0.80 0.83 0.86 0.93 0.92 0.91 0.91 0.91 0.91 0.91 0.93 0.95 0.96 0.80 0.78 0.72 0.65 0.70 0.68 0.64 0.59 0.51 0.46
0.80 0.76 0.63 0.58 0.57 0.51 0.43 0.37 0.40 0.49 0.55 0.54 0.52 0.51 0.44 0.42 0.47 0.48 0.51 0.56 0.64 0.66 0.73 0.87 0.96 0.93 0.95 0.98 1.01 0.96 1.01 1.06 1.01 0.90 0.94 0.89 0.70 0.65 0.53 0.48 0.50 0.44 0.44
0.78 0.75 0.69 0.63 0.56 0.44 0.33 0.29 0.30 0.40 0.50 0.50 0.48 0.49 0.51 0.51 0.48 0.48 0.48 0.52 0.62 0.68 0.70 0.74 0.89 0.89 0.85 0.91 0.97 1.02 1.07 1.09 1.04 0.96 1.02 1.03 0.75 0.66 0.53 0.57 0.53 0.40 0.36
0.65 0.61 0.57 0.53 0.52 0.42 0.25 0.20 0.22 0.38 0.49 0.46 0.40 0.38 0.42 0.47 0.49 0.47 0.50 0.62 0.68 0.74 0.63 0.63 0.73 0.80 0.83 0.88 0.87 0.93 1.11 1.25 1.19 0.96 0.93 1.03 0.85 0.72 0.63 0.62 0.56 0.47 0.40
0.59 0.51 0.46 0.45 0.44 0.40 0.26 0.21 0.24 0.36 0.45 0.42 0.40 0.39 0.39 0.41 0.42 0.41 0.50 0.64 0.74 0.75 0.67 0.69 0.84 0.94 0.92 0.98 0.94 0.96 1.17 1.25 1.20 1.13 0.94 0.98 0.95 0.91 0.87 0.68 0.61 0.57 0.54

GEFSMA_prec_meanprecacc_198.txt.gz
Total_Precipitation_Accumulation
2.17 2.24 2.14 2.12 2.02 2.01 1.99 1.87 1.78 1.78 1.69 1.50 1.25 1.21 1.25 1.18 1.23 1.40 1.47 1.49 1.52 1.80 2.21 2.44 2.35 2.11 2.07 2.09 2.12 2.08 1.91 1.75 1.61 1.46 1.28 1.12 1.03 0.97 0.89 0.86 0.83 0.78 0.75
2.39 2.45 2.42 2.37 2.31 2.27 2.34 2.16 1.95 2.09 1.94 1.86 1.65 1.56 1.49 1.54 1.53 1.63 1.83 1.82 1.59 1.58 1.90 2.29 2.47 2.46 2.47 2.40 2.31 2.16 2.01 1.90 1.84 1.77 1.61 1.41 1.26 1.14 1.05 1.02 0.95 0.87 0.83
2.51 2.58 2.74 2.67 2.61 2.55 2.57 2.50 2.37 2.41 2.19 2.07 1.94 1.82 1.77 1.88 1.89 1.83 1.99 2.14 1.90 1.78 1.76 1.92 2.15 2.35 2.51 2.58 2.54 2.42 2.25 2.10 2.00 1.99 1.94 1.78 1.60 1.48 1.39 1.25 1.15 1.12 1.07
2.66 2.91 3.01 2.98 2.98 2.84 2.89 2.97 2.91 2.71 2.57 2.40 2.23 1.98 1.91 2.04 2.06 2.04 2.06 2.20 2.35 2.18 2.04 1.89 1.94 2.09 2.34 2.55 2.64 2.69 2.59 2.42 2.26 2.14 2.07 2.03 1.94 1.79 1.62 1.44 1.33 1.31 1.26
3.13 3.29 3.40 3.45 3.40 3.38 3.34 3.17 3.34 3.17 3.07 2.88 2.48 2.25 2.02 1.97 2.05 1.98 2.05 2.06 2.21 2.25 2.26 2.14 1.99 2.01 2.21 2.53 2.67 2.83 2.87 2.79 2.63 2.43 2.25 2.12 2.11 2.04 1.90 1.73 1.59 1.46 1.38
3.77 3.89 3.87 3.89 3.88 3.90 3.74 3.68 3.70 3.46 3.24 3.17 2.69 2.47 2.28 2.07 2.07 2.04 2.02 2.07 2.04 1.94 2.02 2.14 2.22 2.01 2.12 2.29 2.45 2.68 2.92 3.09 3.02 2.80 2.67 2.53 2.39 2.25 2.03 1.83 1.68 1.58 1.47
4.69 4.75 4.63 4.55 4.39 4.25 4.06 3.95 3.76 3.55 3.30 3.22 3.06 2.67 2.18 1.87 1.84 1.76 1.79 1.94 1.95 1.89 1.93 2.02 2.10 2.05 1.93 1.94 2.01 2.26 2.62 3.00 3.23 3.16 3.00 2.82 2.57 2.39 2.23 2.05 1.88 1.76 1.62
5.55 5.61 5.55 5.35 5.12 4.84 4.36 3.99 3.77 3.58 3.27 3.32 3.26 3.15 2.54 2.10 1.74 1.41 1.49 1.56 1.63 1.77 1.76 1.76 1.88 2.01 1.93 1.91 1.72 1.82 2.06 2.40 2.87 3.17 3.16 2.95 2.75 2.59 2.49 2.38 2.24 2.08 1.89
5.70 5.86 5.82 5.59 5.23 4.66 4.14 3.96 3.86 3.73 3.52 3.43 3.28 3.35 2.89 2.43 2.04 1.59 1.36 1.28 1.37 1.42 1.43 1.51 1.60 1.75 1.74 1.80 1.74 1.73 1.80 1.93 2.34 2.75 2.82 2.65 2.52 2.39 2.36 2.35 2.33 2.25 2.15
5.51 5.40 5.22 4.81 4.40 4.06 3.78 3.67 3.68 3.53 3.50 3.36 3.27 2.98 2.75 2.48 2.23 1.86 1.49 1.30 1.30 1.30 1.30 1.29 1.37 1.60 1.70 1.73 1.73 1.69 1.66 1.73 1.94 2.24 2.43 2.43 2.36 2.33 2.32 2.32 2.31 2.34 2.37
4.67 4.33 3.97 3.70 3.60 3.43 3.22 3.12 3.09 3.00 2.87 2.79 2.80 2.75 2.69 2.45 2.14 1.93 1.68 1.48 1.46 1.36 1.35 1.39 1.45 1.53 1.64 1.71 1.74 1.74 1.68 1.59 1.64 1.73 1.86 1.97 2.07 2.17 2.26 2.33 2.40 2.43 2.45
3.89 3.44 3.20 2.97 2.85 2.68 2.46 2.33 2.31 2.36 2.45 2.49 2.53 2.50 2.46 2.43 2.28 2.19 2.02 1.80 1.66 1.60 1.52 1.47 1.53 1.60 1.75 1.85 1.86 2.04 1.75 1.57 1.54 1.54 1.55 1.61 1.70 1.83 1.97 2.16 2.34 2.45 2.54
3.51 3.08 2.65 2.42 2.18 1.98 1.87 1.81 1.77 1.79 1.92 2.05 2.17 2.22 2.20 2.16 2.12 2.14 2.20 2.02 1.79 1.65 1.54 1.52 1.57 1.66 1.69 1.82 2.00 2.16 1.86 1.72 1.58 1.48 1.41 1.40 1.44 1.51 1.62 1.71 1.91 2.09 2.27
2.91 2.59 2.17 1.81 1.57 1.42 1.36 1.40 1.42 1.46 1.51 1.61 1.72 1.88 1.90 1.86 1.92 1.99 2.08 2.14 2.07 1.81 1.55 1.53 1.65 1.71 1.72 1.72 1.93 2.00 1.71 1.75 1.55 1.45 1.41 1.38 1.34 1.34 1.41 1.49 1.65 1.81 1.90
2.02 1.82 1.59 1.42 1.28 1.22 1.19 1.19 1.17 1.17 1.25 1.33 1.41 1.53 1.65 1.67 1.71 1.79 1.90 2.01 2.07 1.98 1.77 1.63 1.64 1.65 1.67 1.71 1.86 1.50 1.42 1.63 1.51 1.42 1.37 1.30 1.24 1.22 1.20 1.25 1.32 1.39 1.47
1.34 1.28 1.19 1.15 1.10 1.02 1.03 1.07 1.03 1.01 1.10 1.14 1.14 1.22 1.34 1.43 1.52 1.60 1.72 1.82 1.87 1.87 1.81 1.63 1.57 1.58 1.57 1.52 1.67 1.35 1.34 1.53 1.40 1.30 1.22 1.18 1.16 1.15 1.13 1.14 1.20 1.23 1.22
1.08 1.04 1.03 1.00 0.97 0.95 0.94 0.93 0.91 0.90 0.95 1.07 1.14 1.19 1.25 1.29 1.38 1.42 1.45 1.51 1.63 1.73 1.82 1.76 1.60 1.56 1.58 1.55 1.47 1.28 1.19 1.17 1.20 1.25 1.19 1.13 1.06 1.03 1.03 1.01 0.96 0.97 0.97
0.96 0.97 0.96 0.94 0.95 0.97 1.00 0.95 0.86 0.83 0.88 0.96 1.02 1.08 1.09 1.10 1.18 1.28 1.35 1.34 1.40 1.50 1.61 1.67 1.58 1.46 1.44 1.45 1.41 1.32 1.12 1.02 1.02 1.06 1.00 0.94 0.92 0.88 0.84 0.83 0.82 0.80 0.79
0.96 0.91 0.86 0.88 0.94 0.97 0.95 0.92 0.86 0.83 0.82 0.85 0.88 0.89 0.92 0.96 0.97 1.01 1.08 1.14 1.18 1.21 1.34 1.37 1.36 1.31 1.27 1.23 1.27 1.24 1.13 1.13 0.96 0.94 0.86 0.80 0.75 0.72 0.67 0.64 0.66 0.70 0.70
0.91 0.91 0.89 0.86 0.85 0.80 0.72 0.68 0.68 0.68 0.67 0.68 0.69 0.71 0.78 0.85 0.86 0.87 0.87 0.92 0.97 1.09 1.18 1.22 1.20 1.19 1.18 1.11 1.14 1.17 1.14 1.07 0.96 0.78 0.80 0.70 0.64 0.57 0.56 0.56 0.53 0.52 0.54
0.76 0.75 0.73 0.71 0.66 0.56 0.48 0.46 0.51 0.53 0.56 0.58 0.60 0.58 0.59 0.68 0.76 0.73 0.68 0.77 0.89 1.00 1.06 1.09 1.04 0.99 0.98 1.03 1.04 1.00 0.97 0.95 0.90 0.80 0.83 0.75 0.69 0.66 0.67 0.63 0.56 0.51 0.50
0.79 0.68 0.62 0.62 0.56 0.44 0.43 0.40 0.44 0.52 0.57 0.59 0.62 0.62 0.56 0.56 0.57 0.55 0.56 0.69 0.84 0.88 0.92 0.99 0.97 0.97 0.97 0.98 0.99 0.98 1.01 1.02 1.01 0.86 0.84 0.77 0.70 0.75 0.73 0.68 0.63 0.54 0.48
0.87 0.83 0.72 0.65 0.63 0.57 0.46 0.40 0.43 0.52 0.59 0.60 0.59 0.58 0.50 0.48 0.52 0.53 0.55 0.59 0.67 0.69 0.76 0.90 1.00 0.97 0.99 1.03 1.08 1.03 1.09 1.13 1.08 0.97 1.01 0.94 0.75 0.70 0.58 0.54 0.56 0.49 0.47
0.85 0.82 0.77 0.69 0.62 0.48 0.35 0.29 0.31 0.42 0.54 0.56 0.55 0.55 0.57 0.56 0.51 0.52 0.52 0.55 0.65 0.72 0.73 0.76 0.93 0.93 0.90 0.95 1.02 1.08 1.14 1.15 1.11 1.04 1.10 1.10 0.82 0.73 0.59 0.63 0.59 0.47 0.42
0.71 0.68 0.63 0.57 0.56 0.45 0.26 0.20 0.23 0.40 0.53 0.51 0.46 0.43 0.47 0.52 0.52 0.50 0.54 0.66 0.74 0.80 0.67 0.66 0.76 0.83 0.86 0.90 0.90 0.97 1.15 1.30 1.25 1.03 1.01 1.11 0.94 0.81 0.71 0.70 0.64 0.55 0.46
0.65 0.56 0.49 0.48 0.48 0.43 0.27 0.21 0.25 0.39 0.49 0.47 0.46 0.44 0.41 0.42 0.43 0.43 0.53 0.67 0.78 0.79 0.71 0.72 0.88 0.97 0.95 1.01 0.97 1.00 1.21 1.29 1.24 1.19 1.01 1.05 1.02 0.99 0.95 0.76 0.70 0.66 0.61

GEFSMA_prec_meanprecacc_204.txt.gz
Total_Precipitation_Accumulation
2.22 2.29 2.19 2.17 2.07 2.05 2.03 1.92 1.84 1.84 1.73 1.54 1.28 1.25 1.29 1.22 1.26 1.45 1.52 1.55 1.59 1.90 2.34 2.58 2.47 2.22 2.17 2.18 2.21 2.16 1.97 1.80 1.65 1.51 1.34 1.19 1.09 1.02 0.92 0.89 0.86 0.81 0.79
2.48 2.54 2.50 2.45 2.39 2.35 2.41 2.24 2.02 2.16 2.00 1.90 1.70 1.61 1.54 1.58 1.56 1.66 1.87 1.86 1.65 1.67 2.02 2.44 2.62 2.61 2.60 2.50 2.40 2.24 2.08 1.95 1.89 1.83 1.67 1.47 1.32 1.19 1.10 1.06 0.98 0.91 0.87
2.62 2.69 2.83 2.76 2.71 2.65 2.66 2.60 2.46 2.48 2.25 2.13 1.99 1.86 1.81 1.92 1.92 1.86 2.02 2.16 1.93 1.86 1.87 2.04 2.29 2.51 2.68 2.73 2.66 2.53 2.34 2.18 2.06 2.04 2.00 1.84 1.66 1.53 1.43 1.30 1.19 1.15 1.11
2.75 3.01 3.09 3.04 3.05 2.92 2.96 3.06 3.01 2.79 2.65 2.47 2.29 2.02 1.95 2.08 2.11 2.08 2.11 2.25 2.39 2.22 2.09 1.97 2.04 2.21 2.48 2.70 2.78 2.82 2.70 2.52 2.34 2.20 2.13 2.09 2.00 1.85 1.68 1.49 1.38 1.36 1.32
3.21 3.37 3.47 3.50 3.46 3.46 3.43 3.25 3.42 3.24 3.14 2.94 2.54 2.32 2.07 2.01 2.10 2.02 2.09 2.09 2.25 2.29 2.30 2.18 2.07 2.11 2.33 2.67 2.82 2.99 3.01 2.90 2.72 2.51 2.32 2.18 2.16 2.10 1.96 1.79 1.64 1.52 1.44
3.83 3.95 3.92 3.92 3.93 3.96 3.80 3.75 3.77 3.53 3.32 3.24 2.78 2.55 2.35 2.11 2.11 2.08 2.05 2.11 2.08 1.99 2.07 2.17 2.28 2.08 2.23 2.41 2.59 2.83 3.08 3.22 3.13 2.90 2.75 2.60 2.46 2.31 2.10 1.90 1.74 1.63 1.53
4.75 4.81 4.67 4.60 4.45 4.32 4.12 4.01 3.83 3.62 3.37 3.29 3.13 2.72 2.22 1.91 1.87 1.80 1.84 1.98 1.99 1.93 1.99 2.08 2.15 2.10 1.99 2.03 2.12 2.40 2.78 3.18 3.37 3.27 3.08 2.89 2.64 2.45 2.29 2.12 1.94 1.81 1.67
5.62 5.68 5.63 5.42 5.21 4.92 4.45 4.06 3.84 3.64 3.33 3.38 3.32 3.19 2.57 2.13 1.77 1.45 1.53 1.61 1.68 1.83 1.83 1.83 1.95 2.08 2.01 1.98 1.79 1.92 2.20 2.57 3.05 3.30 3.25 3.03 2.81 2.64 2.54 2.44 2.30 2.14 1.95
5.76 5.92 5.88 5.65 5.30 4.74 4.21 4.00 3.90 3.77 3.56 3.47 3.33 3.39 2.93 2.46 2.07 1.62 1.39 1.32 1.42 1.49 1.50 1.56 1.65 1.79 1.79 1.85 1.79 1.79 1.90 2.05 2.50 2.92 2.95 2.73 2.59 2.45 2.41 2.39 2.38 2.32 2.22
5.55 5.44 5.26 4.85 4.45 4.11 3.82 3.70 3.72 3.56 3.53 3.40 3.31 3.03 2.80 2.51 2.26 1.88 1.52 1.33 1.32 1.33 1.34 1.33 1.41 1.64 1.73 1.76 1.76 1.74 1.71 1.79 2.05 2.38 2.58 2.56 2.45 2.40 2.37 2.36 2.36 2.40 2.44
4.74 4.37 4.00 3.73 3.63 3.47 3.26 3.16 3.12 3.04 2.90 2.83 2.84 2.81 2.74 2.49 2.17 1.95 1.71 1.50 1.47 1.37 1.37 1.42 1.48 1.56 1.67 1.74 1.77 1.77 1.73 1.64 1.69 1.80 1.96 2.09 2.18 2.27 2.34 2.39 2.45 2.48 2.51
3.95 3.48 3.23 3.00 2.88 2.71 2.49 2.37 2.35 2.39 2.47 2.52 2.57 2.55 2.51 2.48 2.32 2.22 2.04 1.81 1.67 1.62 1.54 1.49 1.56 1.64 1.79 1.90 1.90 2.07 1.79 1.62 1.59 1.60 1.62 1.69 1.79 1.92 2.06 2.24 2.42 2.52 2.61
3.55 3.11 2.68 2.45 2.22 2.03 1.92 1.87 1.83 1.82 1.94 2.09 2.22 2.27 2.25 2.20 2.16 2.18 2.23 2.05 1.81 1.68 1.56 1.53 1.58 1.68 1.73 1.87 2.07 2.25 1.93 1.78 1.65 1.54 1.47 1.48 1.53 1.59 1.68 1.78 1.98 2.17 2.34
2.94 2.61 2.20 1.85 1.62 1.49 1.42 1.46 1.48 1.50 1.55 1.66 1.77 1.92 1.95 1.90 1.96 2.04 2.11 2.18 2.11 1.84 1.58 1.54 1.66 1.72 1.74 1.74 1.96 2.08 1.81 1.84 1.64 1.53 1.47 1.43 1.41 1.41 1.46 1.55 1.71 1.87 1.97
2.05 1.84 1.62 1.45 1.32 1.27 1.25 1.25 1.23 1.23 1.30 1.39 1.47 1.58 1.70 1.73 1.77 1.85 1.96 2.06 2.12 2.02 1.80 1.66 1.67 1.67 1.69 1.74 1.89 1.54 1.48 1.71 1.60 1.52 1.45 1.36 1.29 1.27 1.26 1.30 1.36 1.43 1.52
1.39 1.32 1.23 1.19 1.13 1.06 1.09 1.13 1.07 1.06 1.16 1.20 1.21 1.29 1.40 1.49 1.57 1.66 1.78 1.88 1.93 1.91 1.84 1.66 1.60 1.60 1.59 1.54 1.70 1.38 1.39 1.58 1.47 1.39 1.32 1.26 1.20 1.19 1.17 1.19 1.24 1.26 1.26
1.12 1.08 1.06 1.04 1.01 0.99 0.98 0.97 0.95 0.95 1.01 1.14 1.22 1.27 1.32 1.37 1.45 1.48 1.50 1.55 1.68 1.79 1.87 1.80 1.63 1.59 1.60 1.56 1.49 1.31 1.22 1.20 1.24 1.30 1.26 1.22 1.14 1.07 1.07 1.05 1.01 1.01 1.00
1.00 1.00 0.99 0.98 0.99 1.02 1.03 0.99 0.90 0.89 0.95 1.04 1.11 1.16 1.16 1.16 1.23 1.33 1.39 1.38 1.43 1.55 1.67 1.73 1.64 1.51 1.47 1.48 1.44 1.37 1.17 1.06 1.05 1.10 1.04 0.99 0.99 0.94 0.89 0.88 0.87 0.85 0.82
1.00 0.95 0.90 0.92 0.98 1.01 1.00 0.97 0.91 0.89 0.89 0.94 0.96 0.96 0.97 1.00 1.01 1.05 1.11 1.17 1.21 1.24 1.37 1.42 1.42 1.36 1.32 1.27 1.31 1.30 1.20 1.22 1.04 1.01 0.91 0.83 0.80 0.78 0.73 0.69 0.71 0.75 0.74
0.95 0.95 0.93 0.90 0.89 0.84 0.76 0.70 0.71 0.75 0.75 0.75 0.76 0.76 0.81 0.89 0.90 0.92 0.90 0.94 1.00 1.11 1.21 1.25 1.23 1.24 1.24 1.16 1.19 1.23 1.21 1.16 1.04 0.87 0.88 0.76 0.68 0.62 0.62 0.62 0.58 0.58 0.60
0.80 0.79 0.78 0.74 0.68 0.58 0.50 0.47 0.52 0.55 0.59 0.60 0.63 0.61 0.61 0.71 0.80 0.78 0.72 0.81 0.92 1.03 1.09 1.12 1.07 1.01 1.01 1.06 1.07 1.05 1.04 1.04 0.98 0.86 0.90 0.81 0.74 0.70 0.70 0.67 0.61 0.57 0.57
0.83 0.72 0.67 0.65 0.59 0.46 0.45 0.42 0.46 0.54 0.59 0.61 0.64 0.64 0.58 0.58 0.61 0.59 0.59 0.71 0.86 0.90 0.95 1.02 1.01 1.00 1.00 1.00 1.01 1.02 1.06 1.09 1.10 0.92 0.88 0.81 0.74 0.78 0.76 0.71 0.66 0.56 0.53
0.91 0.87 0.76 0.68 0.66 0.59 0.49 0.41 0.44 0.53 0.60 0.62 0.61 0.60 0.52 0.49 0.54 0.55 0.56 0.60 0.68 0.70 0.78 0.92 1.02 1.00 1.01 1.05 1.10 1.06 1.12 1.17 1.14 1.04 1.06 0.97 0.78 0.73 0.60 0.56 0.59 0.51 0.49
0.88 0.85 0.80 0.72 0.64 0.50 0.36 0.30 0.32 0.43 0.55 0.58 0.56 0.56 0.58 0.57 0.53 0.53 0.53 0.56 0.66 0.72 0.74 0.78 0.94 0.95 0.92 0.97 1.04 1.11 1.18 1.19 1.15 1.11 1.16 1.13 0.83 0.75 0.62 0.65 0.61 0.49 0.44
0.74 0.71 0.65 0.59 0.58 0.46 0.26 0.21 0.25 0.42 0.56 0.53 0.47 0.44 0.48 0.52 0.53 0.51 0.55 0.67 0.75 0.80 0.68 0.68 0.78 0.85 0.87 0.92 0.92 0.99 1.19 1.35 1.30 1.09 1.08 1.15 0.95 0.81 0.72 0.72 0.65 0.56 0.49
0.66 0.57 0.50 0.49 0.49 0.45 0.29 0.23 0.27 0.41 0.50 0.48 0.47 0.44 0.41 0.42 0.43 0.43 0.54 0.68 0.79 0.79 0.72 0.73 0.88 0.98 0.95 1.02 1.00 1.03 1.25 1.34 1.30 1.26 1.09 1.11 1.04 1.01 0.96 0.77 0.71 0.67 0.63

GEFSMA_prec_meanprecacc_210.txt.gz
Total_Precipitation_Accumulation
2.32 2.39 2.28 2.22 2.10 2.08 2.06 1.96 1.87 1.88 1.77 1.59 1.34 1.31 1.35 1.27 1.32 1.51 1.58 1.61 1.64 1.95 2.40 2.65 2.57 2.36 2.32 2.35 2.37 2.29 2.08 1.90 1.75 1.60 1.42 1.25 1.16 1.09 0.98 0.94 0.91 0.87 0.84
2.59 2.67 2.62 2.52 2.43 2.38 2.44 2.28 2.07 2.22 2.06 1.97 1.76 1.67 1.62 1.65 1.61 1.71 1.91 1.90 1.69 1.73 2.08 2.51 2.71 2.72 2.73 2.66 2.56 2.39 2.20 2.05 1.98 1.91 1.76 1.56 1.40 1.27 1.16 1.12 1.03 0.96 0.92
2.69 2.77 2.93 2.83 2.75 2.69 2.70 2.64 2.53 2.58 2.35 2.21 2.05 1.93 1.88 1.97 1.96 1.89 2.05 2.19 1.96 1.90 1.91 2.09 2.36 2.60 2.79 2.87 2.84 2.71 2.51 2.31 2.17 2.14 2.08 1.93 1.74 1.62 1.51 1.37 1.26 1.21 1.18
2.81 3.09 3.17 3.11 3.11 2.98 3.04 3.13 3.07 2.88 2.73 2.54 2.34 2.07 1.99 2.13 2.15 2.13 2.15 2.28 2.42 2.24 2.11 2.01 2.11 2.29 2.58 2.83 2.96 3.02 2.91 2.71 2.48 2.31 2.23 2.18 2.09 1.93 1.76 1.56 1.45 1.41 1.37
3.28 3.45 3.54 3.55 3.51 3.52 3.50 3.33 3.49 3.31 3.21 3.01 2.59 2.36 2.12 2.05 2.15 2.08 2.14 2.14 2.29 2.33 2.33 2.21 2.12 2.18 2.41 2.76 2.94 3.14 3.20 3.10 2.93 2.68 2.44 2.28 2.25 2.19 2.04 1.88 1.72 1.58 1.49
3.92 4.04 3.98 3.98 3.98 4.00 3.85 3.82 3.85 3.62 3.39 3.31 2.86 2.60 2.38 2.14 2.15 2.12 2.10 2.17 2.14 2.03 2.10 2.21 2.32 2.13 2.29 2.49 2.68 2.94 3.23 3.41 3.33 3.08 2.91 2.73 2.55 2.39 2.17 1.97 1.81 1.70 1.59
4.84 4.89 4.71 4.63 4.49 4.37 4.18 4.09 3.92 3.72 3.45 3.39 3.24 2.79 2.26 1.94 1.91 1.83 1.87 2.02 2.02 1.97 2.02 2.10 2.19 2.14 2.04 2.09 2.18 2.47 2.88 3.31 3.56 3.47 3.26 3.04 2.75 2.53 2.36 2.18 2.00 1.88 1.73
5.67 5.72 5.66 5.46 5.25 4.97 4.49 4.12 3.93 3.74 3.41 3.46 3.40 3.27 2.63 2.17 1.80 1.48 1.56 1.63 1.70 1.86 1.85 1.85 1.98 2.11 2.04 2.01 1.83 1.96 2.25 2.66 3.19 3.49 3.44 3.17 2.94 2.74 2.62 2.51 2.36 2.20 2.01
5.80 5.94 5.91 5.69 5.34 4.79 4.26 4.07 3.98 3.84 3.62 3.53 3.39 3.47 2.99 2.51 2.11 1.66 1.45 1.36 1.44 1.51 1.53 1.59 1.68 1.81 1.81 1.87 1.81 1.81 1.93 2.10 2.58 3.07 3.15 2.94 2.76 2.58 2.50 2.47 2.44 2.38 2.28
5.58 5.46 5.28 4.88 4.48 4.14 3.84 3.73 3.76 3.61 3.59 3.45 3.36 3.08 2.85 2.56 2.30 1.92 1.55 1.35 1.35 1.36 1.37 1.35 1.43 1.66 1.75 1.78 1.77 1.75 1.73 1.81 2.09 2.46 2.72 2.74 2.63 2.54 2.49 2.45 2.43 2.47 2.51
4.76 4.38 4.01 3.75 3.65 3.48 3.27 3.18 3.15 3.06 2.93 2.86 2.87 2.84 2.78 2.52 2.21 1.99 1.73 1.51 1.49 1.41 1.40 1.44 1.50 1.59 1.69 1.76 1.78 1.78 1.75 1.65 1.71 1.83 2.04 2.22 2.36 2.45 2.47 2.50 2.54 2.55 2.57
3.98 3.51 3.25 3.02 2.89 2.73 2.51 2.39 2.38 2.42 2.50 2.55 2.60 2.59 2.55 2.52 2.36 2.26 2.08 1.83 1.69 1.65 1.57 1.51 1.58 1.66 1.81 1.92 1.92 2.09 1.82 1.64 1.61 1.61 1.64 1.75 1.91 2.09 2.23 2.36 2.50 2.59 2.67
3.60 3.14 2.70 2.47 2.24 2.04 1.94 1.90 1.86 1.86 1.97 2.11 2.24 2.30 2.28 2.23 2.19 2.22 2.27 2.08 1.84 1.70 1.59 1.57 1.60 1.70 1.75 1.89 2.09 2.27 1.95 1.80 1.66 1.54 1.48 1.50 1.59 1.70 1.82 1.92 2.08 2.23 2.40
2.96 2.63 2.21 1.87 1.64 1.51 1.44 1.49 1.51 1.53 1.58 1.68 1.79 1.94 1.96 1.92 1.98 2.06 2.15 2.22 2.14 1.86 1.60 1.56 1.67 1.73 1.75 1.76 1.99 2.10 1.82 1.85 1.65 1.54 1.48 1.45 1.45 1.49 1.56 1.66 1.82 1.95 2.03
2.06 1.85 1.64 1.46 1.34 1.29 1.28 1.29 1.26 1.26 1.34 1.43 1.50 1.61 1.72 1.75 1.79 1.88 2.00 2.10 2.15 2.04 1.83 1.67 1.68 1.69 1.71 1.76 1.92 1.55 1.49 1.72 1.61 1.53 1.46 1.37 1.31 1.32 1.35 1.39 1.45 1.52 1.59
1.39 1.33 1.24 1.20 1.15 1.08 1.12 1.16 1.12 1.11 1.20 1.23 1.23 1.31 1.42 1.51 1.60 1.69 1.82 1.92 1.97 1.94 1.86 1.68 1.62 1.62 1.61 1.56 1.71 1.39 1.39 1.59 1.48 1.40 1.33 1.29 1.23 1.22 1.23 1.27 1.33 1.33 1.31
1.13 1.10 1.08 1.06 1.03 1.01 1.01 1.00 0.97 0.98 1.04 1.17 1.25 1.29 1.35 1.40 1.47 1.50 1.52 1.58 1.71 1.82 1.90 1.82 1.66 1.62 1.62 1.57 1.50 1.32 1.23 1.21 1.24 1.31 1.27 1.24 1.17 1.12 1.12 1.11 1.08 1.08 1.06
1.02 1.03 1.02 1.00 1.02 1.05 1.06 1.01 0.92 0.91 0.97 1.06 1.14 1.19 1.19 1.19 1.26 1.35 1.41 1.40 1.46 1.57 1.69 1.75 1.66 1.53 1.49 1.49 1.45 1.39 1.18 1.06 1.06 1.11 1.05 1.01 1.02 0.99 0.95 0.95 0.94 0.91 0.89
1.02 0.98 0.93 0.95 1.01 1.04 1.02 0.98 0.93 0.90 0.91 0.96 0.98 0.99 1.00 1.03 1.04 1.07 1.13 1.19 1.22 1.25 1.39 1.44 1.43 1.38 1.34 1.28 1.34 1.33 1.22 1.23 1.05 1.02 0.93 0.86 0.83 0.81 0.78 0.75 0.79 0.83 0.81
0.98 0.98 0.96 0.92 0.91 0.87 0.78 0.73 0.73 0.77 0.77 0.78 0.79 0.78 0.84 0.91 0.93 0.94 0.92 0.96 1.02 1.13 1.22 1.27 1.24 1.25 1.26 1.18 1.21 1.26 1.23 1.17 1.05 0.88 0.91 0.79 0.71 0.65 0.65 0.66 0.65 0.66 0.69
0.83 0.82 0.82 0.77 0.71 0.60 0.52 0.49 0.55 0.57 0.60 0.62 0.65 0.62 0.63 0.72 0.82 0.79 0.73 0.82 0.93 1.05 1.11 1.13 1.08 1.03 1.02 1.08 1.10 1.07 1.06 1.06 1.00 0.88 0.93 0.84 0.77 0.73 0.73 0.71 0.68 0.63 0.64
0.85 0.75 0.71 0.69 0.62 0.48 0.47 0.44 0.48 0.55 0.60 0.61 0.65 0.65 0.59 0.60 0.62 0.60 0.60 0.72 0.88 0.92 0.97 1.03 1.02 1.02 1.02 1.02 1.04 1.05 1.09 1.12 1.13 0.95 0.91 0.84 0.77 0.81 0.79 0.75 0.71 0.64 0.60
0.93 0.90 0.79 0.72 0.69 0.61 0.50 0.43 0.45 0.54 0.61 0.62 0.62 0.61 0.54 0.51 0.57 0.57 0.57 0.62 0.69 0.71 0.79 0.94 1.03 1.01 1.03 1.07 1.12 1.09 1.15 1.20 1.18 1.08 1.10 1.01 0.82 0.77 0.63 0.59 0.63 0.57 0.56
0.91 0.88 0.82 0.74 0.66 0.50 0.37 0.31 0.33 0.44 0.56 0.59 0.58 0.58 0.59 0.58 0.54 0.55 0.54 0.57 0.66 0.73 0.74 0.79 0.95 0.96 0.93 0.99 1.06 1.14 1.21 1.22 1.18 1.14 1.19 1.19 0.89 0.79 0.65 0.69 0.65 0.53 0.50
0.77 0.74 0.68 0.62 0.60 0.47 0.28 0.23 0.26 0.43 0.57 0.55 0.48 0.45 0.48 0.53 0.54 0.52 0.55 0.68 0.75 0.81 0.68 0.69 0.78 0.86 0.88 0.93 0.93 1.01 1.21 1.37 1.32 1.12 1.10 1.19 0.99 0.85 0.75 0.74 0.68 0.60 0.52
0.69 0.61 0.54 0.53 0.52 0.48 0.32 0.26 0.29 0.42 0.51 0.49 0.47 0.44 0.42 0.43 0.43 0.44 0.54 0.69 0.79 0.80 0.72 0.73 0.89 0.98 0.96 1.03 1.01 1.05 1.27 1.36 1.32 1.28 1.11 1.14 1.10 1.07 1.00 0.79 0.73 0.69 0.66

GEFSMA_prec_meanprecacc_216.txt.gz
Total_Precipitation_Accumulation
2.36 2.43 2.32 2.27 2.15 2.13 2.11 2.01 1.92 1.93 1.82 1.64 1.40 1.38 1.43 1.35 1.38 1.57 1.63 1.67 1.73 2.03 2.45 2.68 2.60 2.41 2.39 2.43 2.46 2.40 2.22 2.02 1.85 1.70 1.49 1.32 1.22 1.17 1.07 1.03 1.01 0.96 0.93
2.62 2.69 2.64 2.55 2.47 2.42 2.49 2.32 2.10 2.26 2.11 2.01 1.81 1.73 1.69 1.72 1.67 1.75 1.96 1.97 1.78 1.81 2.14 2.55 2.75 2.76 2.79 2.73 2.63 2.46 2.31 2.18 2.11 2.02 1.85 1.63 1.46 1.34 1.25 1.21 1.12 1.05 1.01
2.71 2.79 2.95 2.86 2.78 2.73 2.74 2.68 2.56 2.62 2.39 2.25 2.09 1.98 1.94 2.03 2.02 1.95 2.10 2.24 2.02 1.97 1.99 2.15 2.41 2.65 2.84 2.92 2.89 2.77 2.58 2.41 2.30 2.25 2.18 2.01 1.81 1.69 1.59 1.45 1.35 1.29 1.25
2.84 3.12 3.20 3.14 3.13 3.02 3.07 3.16 3.11 2.91 2.76 2.58 2.38 2.11 2.03 2.16 2.18 2.16 2.19 2.32 2.46 2.29 2.18 2.08 2.16 2.35 2.64 2.89 3.02 3.12 3.01 2.81 2.59 2.43 2.34 2.27 2.17 2.01 1.84 1.64 1.53 1.49 1.44
3.32 3.48 3.56 3.57 3.54 3.55 3.53 3.36 3.52 3.34 3.26 3.06 2.64 2.41 2.16 2.09 2.19 2.12 2.18 2.18 2.33 2.38 2.39 2.27 2.18 2.24 2.47 2.84 3.02 3.26 3.33 3.21 3.04 2.80 2.58 2.43 2.42 2.33 2.15 1.96 1.80 1.67 1.57
3.97 4.07 4.00 4.01 4.01 4.04 3.89 3.85 3.89 3.66 3.44 3.38 2.93 2.66 2.44 2.19 2.19 2.17 2.16 2.25 2.23 2.10 2.18 2.27 2.39 2.20 2.35 2.54 2.72 3.00 3.30 3.49 3.42 3.19 3.04 2.87 2.69 2.53 2.27 2.04 1.87 1.77 1.66
4.88 4.92 4.73 4.66 4.53 4.40 4.21 4.13 3.98 3.76 3.50 3.45 3.31 2.86 2.31 2.00 1.96 1.88 1.92 2.11 2.15 2.06 2.09 2.15 2.24 2.19 2.07 2.12 2.22 2.52 2.94 3.40 3.67 3.58 3.38 3.17 2.87 2.65 2.46 2.26 2.06 1.93 1.79
5.70 5.75 5.69 5.49 5.28 5.00 4.53 4.17 4.01 3.80 3.46 3.53 3.49 3.36 2.70 2.24 1.84 1.51 1.60 1.68 1.76 1.93 1.90 1.89 2.00 2.14 2.07 2.04 1.86 2.00 2.29 2.72 3.28 3.58 3.55 3.29 3.06 2.86 2.73 2.61 2.45 2.28 2.08
5.82 5.97 5.93 5.71 5.37 4.83 4.30 4.12 4.04 3.91 3.70 3.62 3.48 3.57 3.07 2.58 2.18 1.71 1.49 1.40 1.49 1.57 1.58 1.63 1.70 1.84 1.83 1.89 1.83 1.84 1.96 2.14 2.64 3.13 3.23 3.03 2.86 2.71 2.63 2.59 2.55 2.46 2.34
5.60 5.49 5.30 4.90 4.51 4.17 3.88 3.77 3.81 3.67 3.65 3.51 3.42 3.14 2.92 2.64 2.38 1.98 1.59 1.40 1.40 1.42 1.43 1.39 1.47 1.69 1.78 1.80 1.80 1.77 1.75 1.84 2.13 2.51 2.77 2.80 2.70 2.63 2.60 2.56 2.53 2.56 2.58
4.80 4.43 4.06 3.79 3.70 3.52 3.32 3.22 3.20 3.12 2.99 2.92 2.92 2.89 2.84 2.58 2.26 2.05 1.78 1.57 1.55 1.44 1.43 1.47 1.54 1.63 1.73 1.80 1.81 1.81 1.77 1.67 1.74 1.87 2.09 2.28 2.42 2.51 2.57 2.62 2.65 2.66 2.67
4.04 3.56 3.30 3.07 2.94 2.76 2.56 2.44 2.43 2.46 2.54 2.59 2.64 2.64 2.59 2.56 2.40 2.31 2.13 1.88 1.75 1.69 1.61 1.55 1.61 1.70 1.85 1.96 1.96 2.12 1.84 1.67 1.64 1.64 1.68 1.78 1.95 2.13 2.28 2.45 2.61 2.69 2.76
3.65 3.18 2.75 2.52 2.29 2.09 1.98 1.95 1.91 1.90 2.01 2.15 2.27 2.34 2.32 2.27 2.22 2.26 2.32 2.12 1.89 1.76 1.64 1.61 1.65 1.74 1.78 1.94 2.14 2.30 1.97 1.82 1.68 1.56 1.50 1.52 1.61 1.72 1.85 1.97 2.16 2.33 2.49
2.99 2.66 2.25 1.90 1.69 1.56 1.48 1.53 1.56 1.58 1.63 1.72 1.82 1.98 2.00 1.95 2.01 2.09 2.18 2.26 2.18 1.91 1.64 1.60 1.72 1.77 1.79 1.80 2.03 2.14 1.85 1.87 1.66 1.55 1.49 1.46 1.46 1.50 1.58 1.69 1.87 2.03 2.11
2.09 1.88 1.67 1.50 1.38 1.33 1.33 1.34 1.32 1.32 1.40 1.49 1.55 1.65 1.76 1.79 1.83 1.91 2.03 2.15 2.20 2.09 1.87 1.71 1.72 1.72 1.74 1.78 1.94 1.57 1.52 1.75 1.64 1.55 1.48 1.38 1.32 1.33 1.36 1.40 1.47 1.58 1.67
1.42 1.36 1.27 1.24 1.20 1.13 1.17 1.21 1.17 1.18 1.27 1.30 1.30 1.38 1.48 1.56 1.65 1.74 1.85 1.95 2.01 1.99 1.91 1.72 1.65 1.66 1.64 1.58 1.72 1.40 1.41 1.60 1.50 1.43 1.35 1.30 1.23 1.23 1.24 1.27 1.34 1.36 1.39
1.15 1.13 1.12 1.11 1.08 1.06 1.06 1.04 1.01 1.03 1.09 1.21 1.30 1.34 1.39 1.45 1.53 1.55 1.56 1.62 1.75 1.87 1.96 1.88 1.71 1.67 1.66 1.60 1.52 1.33 1.24 1.22 1.26 1.33 1.29 1.26 1.18 1.12 1.13 1.12 1.09 1.10 1.09
1.04 1.06 1.06 1.06 1.08 1.11 1.12 1.06 0.96 0.95 1.01 1.10 1.18 1.24 1.24 1.23 1.30 1.39 1.44 1.44 1.49 1.60 1.73 1.79 1.69 1.56 1.52 1.51 1.48 1.41 1.19 1.08 1.08 1.13 1.06 1.02 1.03 1.00 0.95 0.95 0.95 0.93 0.90
1.05 1.01 0.97 1.00 1.06 1.10 1.09 1.03 0.96 0.93 0.94 0.98 1.02 1.03 1.04 1.06 1.07 1.10 1.16 1.21 1.24 1.27 1.41 1.46 1.46 1.41 1.37 1.31 1.36 1.36 1.23 1.25 1.07 1.03 0.94 0.87 0.84 0.82 0.78 0.76 0.80 0.85 0.83
1.00 1.00 0.99 0.95 0.94 0.90 0.83 0.78 0.77 0.80 0.80 0.80 0.82 0.82 0.87 0.95 0.97 0.98 0.97 1.01 1.05 1.16 1.25 1.29 1.27 1.28 1.29 1.21 1.24 1.30 1.26 1.19 1.07 0.89 0.91 0.80 0.72 0.66 0.65 0.67 0.65 0.67 0.71
0.84 0.84 0.85 0.79 0.73 0.63 0.55 0.54 0.58 0.60 0.63 0.64 0.67 0.65 0.66 0.77 0.85 0.82 0.76 0.85 0.98 1.10 1.16 1.18 1.12 1.06 1.05 1.12 1.13 1.10 1.10 1.10 1.03 0.90 0.95 0.86 0.78 0.74 0.75 0.72 0.69 0.64 0.65
0.87 0.77 0.72 0.71 0.64 0.50 0.49 0.46 0.51 0.58 0.63 0.64 0.66 0.67 0.61 0.63 0.65 0.62 0.62 0.74 0.91 0.95 1.01 1.09 1.08 1.07 1.06 1.06 1.07 1.07 1.12 1.17 1.18 0.98 0.96 0.88 0.80 0.84 0.82 0.77 0.73 0.65 0.61
0.94 0.91 0.80 0.74 0.71 0.62 0.51 0.44 0.47 0.57 0.64 0.65 0.65 0.63 0.55 0.52 0.58 0.58 0.58 0.63 0.71 0.73 0.81 0.97 1.07 1.05 1.07 1.12 1.17 1.13 1.20 1.25 1.23 1.13 1.15 1.08 0.88 0.81 0.67 0.61 0.64 0.58 0.58
0.92 0.89 0.83 0.76 0.68 0.52 0.38 0.33 0.34 0.46 0.60 0.62 0.61 0.60 0.61 0.59 0.55 0.56 0.55 0.59 0.68 0.75 0.76 0.81 0.98 0.99 0.97 1.04 1.12 1.19 1.27 1.27 1.24 1.20 1.25 1.25 0.96 0.86 0.70 0.73 0.67 0.54 0.52
0.79 0.76 0.70 0.64 0.62 0.49 0.30 0.25 0.28 0.46 0.62 0.59 0.52 0.47 0.50 0.55 0.55 0.53 0.57 0.69 0.77 0.83 0.70 0.70 0.79 0.87 0.90 0.94 0.96 1.05 1.26 1.42 1.37 1.18 1.16 1.26 1.06 0.93 0.82 0.79 0.72 0.63 0.55
0.71 0.63 0.57 0.59 0.58 0.53 0.38 0.32 0.35 0.46 0.57 0.53 0.51 0.47 0.44 0.44 0.45 0.45 0.55 0.70 0.81 0.81 0.73 0.74 0.91 1.00 0.98 1.05 1.02 1.07 1.30 1.40 1.35 1.32 1.15 1.19 1.15 1.13 1.07 0.83 0.75 0.72 0.68

GEFSMA_prec_meanprecacc_222.txt.gz
Total_Precipitation_Accumulation
2.43 2.50 2.38 2.32 2.20 2.17 2.15 2.05 1.97 1.98 1.88 1.70 1.46 1.43 1.49 1.41 1.44 1.62 1.67 1.71 1.78 2.09 2.53 2.75 2.66 2.46 2.43 2.48 2.52 2.46 2.28 2.10 1.93 1.75 1.54 1.36 1.27 1.22 1.13 1.09 1.06 1.02 1.00
2.69 2.75 2.69 2.61 2.52 2.45 2.51 2.36 2.15 2.32 2.15 2.05 1.86 1.78 1.74 1.78 1.73 1.81 2.01 2.02 1.83 1.87 2.21 2.61 2.79 2.81 2.83 2.77 2.68 2.52 2.37 2.26 2.19 2.09 1.90 1.69 1.51 1.40 1.32 1.27 1.18 1.11 1.08
2.77 2.87 3.02 2.92 2.83 2.76 2.78 2.72 2.61 2.68 2.44 2.29 2.13 2.02 2.00 2.08 2.08 2.00 2.16 2.30 2.08 2.03 2.04 2.20 2.45 2.68 2.87 2.95 2.93 2.82 2.64 2.49 2.38 2.32 2.25 2.07 1.87 1.75 1.65 1.51 1.42 1.37 1.33
2.90 3.19 3.26 3.19 3.19 3.07 3.12 3.22 3.16 2.97 2.84 2.65 2.45 2.16 2.08 2.22 2.24 2.22 2.24 2.38 2.52 2.34 2.23 2.12 2.20 2.37 2.67 2.92 3.06 3.16 3.07 2.89 2.67 2.50 2.42 2.34 2.22 2.06 1.90 1.69 1.59 1.56 1.52
3.41 3.56 3.64 3.64 3.60 3.60 3.58 3.41 3.59 3.42 3.34 3.15 2.72 2.46 2.21 2.15 2.23 2.16 2.24 2.24 2.38 2.42 2.44 2.33 2.23 2.28 2.50 2.87 3.06 3.31 3.38 3.27 3.12 2.87 2.65 2.49 2.46 2.38 2.22 2.03 1.87 1.74 1.64
4.03 4.17 4.10 4.10 4.10 4.11 3.95 3.92 3.95 3.74 3.53 3.48 3.01 2.73 2.50 2.25 2.24 2.23 2.22 2.32 2.27 2.14 2.22 2.33 2.45 2.25 2.40 2.58 2.75 3.03 3.33 3.53 3.48 3.25 3.12 2.94 2.75 2.58 2.33 2.11 1.92 1.81 1.71
4.92 4.96 4.78 4.74 4.62 4.48 4.29 4.20 4.05 3.84 3.58 3.54 3.40 2.94 2.39 2.07 2.03 1.95 2.00 2.20 2.21 2.12 2.14 2.20 2.28 2.23 2.10 2.15 2.25 2.55 2.98 3.44 3.74 3.65 3.45 3.24 2.94 2.70 2.50 2.31 2.11 1.98 1.83
5.75 5.79 5.74 5.54 5.35 5.08 4.62 4.24 4.08 3.86 3.51 3.60 3.57 3.45 2.78 2.32 1.91 1.58 1.68 1.75 1.83 2.00 1.96 1.92 2.03 2.18 2.10 2.06 1.88 2.02 2.31 2.75 3.33 3.65 3.61 3.34 3.11 2.91 2.78 2.65 2.50 2.34 2.14
5.86 6.00 5.98 5.77 5.44 4.89 4.37 4.20 4.13 3.99 3.77 3.68 3.56 3.65 3.15 2.65 2.24 1.78 1.55 1.46 1.56 1.66 1.66 1.69 1.74 1.87 1.87 1.93 1.86 1.85 1.98 2.16 2.67 3.19 3.29 3.08 2.90 2.75 2.68 2.64 2.59 2.51 2.39
5.64 5.53 5.35 4.97 4.60 4.24 3.96 3.84 3.88 3.74 3.72 3.58 3.50 3.22 2.99 2.72 2.46 2.05 1.65 1.45 1.47 1.50 1.51 1.46 1.51 1.72 1.80 1.83 1.84 1.79 1.76 1.85 2.14 2.54 2.82 2.85 2.74 2.67 2.64 2.60 2.58 2.61 2.64
4.87 4.48 4.13 3.88 3.80 3.61 3.40 3.28 3.27 3.19 3.05 2.98 2.99 2.97 2.92 2.67 2.35 2.12 1.84 1.62 1.60 1.48 1.48 1.54 1.60 1.67 1.77 1.83 1.85 1.84 1.80 1.68 1.75 1.89 2.13 2.33 2.47 2.55 2.60 2.67 2.70 2.71 2.73
4.10 3.62 3.37 3.15 3.02 2.85 2.64 2.51 2.50 2.52 2.61 2.66 2.71 2.71 2.67 2.64 2.47 2.39 2.19 1.93 1.80 1.73 1.65 1.61 1.66 1.74 1.89 2.00 1.98 2.15 1.86 1.69 1.65 1.65 1.70 1.83 1.99 2.17 2.32 2.48 2.66 2.74 2.81
3.72 3.23 2.79 2.59 2.37 2.18 2.07 2.03 1.99 1.98 2.09 2.22 2.34 2.39 2.38 2.33 2.29 2.34 2.39 2.17 1.94 1.81 1.70 1.67 1.70 1.78 1.82 1.98 2.18 2.33 1.99 1.83 1.69 1.57 1.52 1.55 1.66 1.76 1.89 2.00 2.20 2.37 2.55
3.09 2.76 2.30 1.95 1.75 1.63 1.55 1.61 1.64 1.67 1.72 1.80 1.88 2.05 2.07 2.01 2.09 2.18 2.26 2.33 2.24 1.97 1.72 1.68 1.77 1.81 1.83 1.84 2.07 2.18 1.87 1.89 1.68 1.57 1.51 1.49 1.50 1.54 1.60 1.70 1.89 2.05 2.15
2.15 1.98 1.76 1.56 1.43 1.39 1.40 1.43 1.42 1.41 1.49 1.57 1.62 1.73 1.84 1.86 1.91 2.00 2.13 2.24 2.28 2.15 1.94 1.79 1.78 1.77 1.79 1.84 2.00 1.63 1.57 1.80 1.67 1.57 1.50 1.40 1.34 1.36 1.38 1.42 1.48 1.59 1.69
1.47 1.42 1.35 1.33 1.27 1.19 1.23 1.29 1.27 1.25 1.34 1.36 1.36 1.45 1.56 1.64 1.74 1.83 1.96 2.04 2.10 2.06 1.98 1.77 1.70 1.71 1.70 1.64 1.79 1.46 1.46 1.64 1.53 1.44 1.37 1.31 1.25 1.25 1.25 1.28 1.35 1.37 1.39
1.19 1.18 1.18 1.18 1.15 1.13 1.13 1.12 1.09 1.09 1.14 1.27 1.36 1.40 1.46 1.53 1.61 1.63 1.65 1.71 1.84 1.95 2.04 1.95 1.77 1.73 1.73 1.67 1.57 1.37 1.28 1.25 1.28 1.35 1.30 1.27 1.20 1.14 1.15 1.13 1.10 1.10 1.10
1.07 1.10 1.10 1.10 1.13 1.17 1.18 1.12 1.02 1.00 1.07 1.17 1.25 1.30 1.30 1.29 1.36 1.47 1.53 1.52 1.57 1.68 1.81 1.87 1.75 1.61 1.58 1.57 1.53 1.45 1.22 1.10 1.10 1.14 1.08 1.04 1.05 1.02 0.97 0.97 0.97 0.94 0.91
1.07 1.03 0.99 1.03 1.10 1.15 1.13 1.08 1.01 0.98 1.00 1.06 1.09 1.10 1.10 1.13 1.12 1.17 1.25 1.30 1.32 1.34 1.48 1.54 1.52 1.47 1.42 1.36 1.42 1.41 1.28 1.29 1.09 1.05 0.96 0.88 0.85 0.84 0.81 0.78 0.81 0.86 0.84
1.02 1.04 1.02 0.98 0.98 0.94 0.87 0.83 0.82 0.84 0.85 0.86 0.87 0.86 0.92 1.01 1.03 1.05 1.04 1.08 1.11 1.21 1.30 1.35 1.32 1.32 1.34 1.26 1.29 1.35 1.31 1.24 1.11 0.91 0.93 0.81 0.73 0.67 0.67 0.69 0.67 0.68 0.72
0.86 0.87 0.88 0.83 0.76 0.66 0.58 0.57 0.61 0.63 0.66 0.68 0.70 0.68 0.69 0.81 0.90 0.86 0.80 0.89 1.01 1.14 1.21 1.23 1.16 1.11 1.11 1.18 1.18 1.15 1.15 1.16 1.08 0.94 0.98 0.88 0.80 0.76 0.76 0.74 0.70 0.65 0.66
0.90 0.81 0.76 0.74 0.67 0.52 0.51 0.47 0.53 0.61 0.67 0.67 0.70 0.71 0.64 0.67 0.70 0.67 0.65 0.77 0.93 0.97 1.03 1.12 1.11 1.11 1.11 1.12 1.13 1.12 1.18 1.23 1.23 1.03 1.01 0.92 0.84 0.87 0.85 0.80 0.74 0.66 0.62
0.98 0.95 0.84 0.77 0.73 0.65 0.53 0.44 0.48 0.59 0.68 0.68 0.69 0.68 0.59 0.56 0.61 0.62 0.63 0.66 0.73 0.74 0.83 1.00 1.11 1.09 1.11 1.17 1.23 1.18 1.26 1.31 1.28 1.17 1.21 1.13 0.94 0.87 0.71 0.63 0.66 0.59 0.58
0.95 0.93 0.87 0.79 0.70 0.54 0.39 0.34 0.35 0.48 0.63 0.66 0.66 0.66 0.67 0.64 0.59 0.60 0.59 0.62 0.70 0.76 0.78 0.82 1.01 1.02 0.99 1.07 1.16 1.23 1.32 1.33 1.30 1.24 1.31 1.31 1.02 0.93 0.75 0.77 0.70 0.56 0.52
0.83 0.79 0.72 0.67 0.66 0.51 0.32 0.27 0.30 0.49 0.65 0.63 0.59 0.54 0.56 0.60 0.60 0.58 0.61 0.72 0.79 0.85 0.71 0.71 0.81 0.89 0.91 0.96 0.98 1.08 1.30 1.47 1.42 1.22 1.21 1.31 1.11 1.00 0.88 0.85 0.76 0.66 0.56
0.74 0.66 0.59 0.62 0.63 0.58 0.43 0.35 0.37 0.49 0.60 0.57 0.58 0.55 0.50 0.50 0.51 0.52 0.60 0.74 0.83 0.83 0.75 0.76 0.92 1.01 0.99 1.06 1.03 1.09 1.34 1.44 1.39 1.35 1.19 1.23 1.20 1.19 1.14 0.89 0.80 0.75 0.70

GEFSMA_prec_meanprecacc_228.txt.gz
Total_Precipitation_Accumulation
2.46 2.53 2.41 2.36 2.23 2.20 2.18 2.09 2.00 2.01 1.92 1.75 1.52 1.48 1.53 1.45 1.47 1.65 1.70 1.76 1.83 2.13 2.58 2.85 2.76 2.56 2.52 2.56 2.57 2.50 2.34 2.16 2.00 1.82 1.61 1.42 1.32 1.27 1.17 1.12 1.10 1.06 1.03
2.72 2.79 2.73 2.65 2.56 2.48 2.54 2.39 2.19 2.35 2.19 2.09 1.89 1.82 1.77 1.81 1.77 1.84 2.02 2.04 1.87 1.90 2.25 2.67 2.89 2.90 2.93 2.86 2.75 2.57 2.42 2.30 2.24 2.15 1.96 1.75 1.58 1.46 1.37 1.31 1.22 1.16 1.12
2.80 2.90 3.05 2.95 2.86 2.80 2.81 2.75 2.64 2.70 2.47 2.32 2.15 2.05 2.03 2.11 2.11 2.03 2.18 2.31 2.10 2.06 2.08 2.24 2.51 2.75 2.96 3.05 3.01 2.88 2.70 2.53 2.42 2.38 2.30 2.14 1.94 1.81 1.70 1.56 1.46 1.41 1.37
2.93 3.22 3.30 3.23 3.24 3.12 3.17 3.27 3.21 3.01 2.86 2.69 2.49 2.18 2.11 2.25 2.27 2.25 2.27 2.39 2.53 2.36 2.25 2.15 2.24 2.42 2.71 2.99 3.13 3.22 3.12 2.92 2.71 2.56 2.48 2.40 2.28 2.12 1.96 1.75 1.64 1.61 1.58
3.44 3.60 3.68 3.69 3.65 3.65 3.64 3.48 3.65 3.46 3.37 3.18 2.77 2.51 2.24 2.18 2.26 2.20 2.27 2.27 2.41 2.43 2.44 2.33 2.25 2.31 2.54 2.91 3.11 3.36 3.43 3.31 3.15 2.93 2.72 2.55 2.52 2.44 2.27 2.08 1.93 1.80 1.70
4.07 4.20 4.14 4.16 4.15 4.16 4.01 3.98 4.00 3.78 3.56 3.50 3.07 2.80 2.55 2.28 2.27 2.26 2.26 2.36 2.31 2.16 2.24 2.34 2.45 2.27 2.44 2.62 2.80 3.07 3.38 3.57 3.51 3.30 3.18 3.02 2.83 2.65 2.38 2.15 1.97 1.86 1.76
4.97 4.99 4.80 4.77 4.65 4.53 4.33 4.24 4.08 3.87 3.62 3.58 3.45 3.01 2.45 2.11 2.07 1.99 2.04 2.23 2.25 2.14 2.16 2.22 2.29 2.24 2.12 2.19 2.30 2.59 3.02 3.48 3.78 3.69 3.49 3.31 3.02 2.78 2.56 2.35 2.16 2.03 1.89
5.81 5.83 5.78 5.56 5.38 5.11 4.64 4.27 4.11 3.88 3.54 3.63 3.62 3.53 2.85 2.38 1.96 1.62 1.72 1.79 1.87 2.03 1.99 1.95 2.06 2.21 2.12 2.09 1.91 2.06 2.35 2.78 3.36 3.68 3.64 3.38 3.17 2.98 2.84 2.69 2.54 2.39 2.20
5.95 6.08 6.03 5.81 5.48 4.93 4.40 4.23 4.16 4.01 3.79 3.71 3.59 3.73 3.22 2.70 2.29 1.82 1.59 1.50 1.60 1.70 1.70 1.72 1.77 1.90 1.90 1.96 1.89 1.88 2.01 2.19 2.70 3.22 3.32 3.12 2.95 2.81 2.75 2.70 2.64 2.55 2.44
5.73 5.62 5.45 5.06 4.67 4.31 4.01 3.88 3.91 3.77 3.75 3.60 3.52 3.26 3.03 2.75 2.49 2.09 1.69 1.49 1.51 1.54 1.55 1.51 1.55 1.75 1.84 1.87 1.89 1.83 1.80 1.89 2.19 2.58 2.86 2.89 2.78 2.71 2.70 2.66 2.63 2.66 2.69
4.93 4.54 4.19 3.97 3.89 3.69 3.46 3.33 3.31 3.22 3.08 3.00 3.01 2.99 2.95 2.71 2.39 2.15 1.87 1.66 1.63 1.51 1.52 1.59 1.65 1.72 1.81 1.88 1.91 1.89 1.84 1.72 1.79 1.93 2.16 2.37 2.50 2.59 2.64 2.72 2.75 2.76 2.78
4.17 3.68 3.41 3.18 3.06 2.88 2.67 2.53 2.51 2.53 2.62 2.67 2.73 2.73 2.70 2.67 2.51 2.43 2.22 1.96 1.84 1.75 1.68 1.64 1.70 1.79 1.94 2.05 2.03 2.20 1.91 1.72 1.68 1.68 1.73 1.86 2.04 2.21 2.35 2.52 2.70 2.79 2.87
3.76 3.29 2.85 2.62 2.39 2.19 2.08 2.04 2.01 2.00 2.11 2.24 2.35 2.41 2.40 2.35 2.33 2.39 2.45 2.21 1.97 1.84 1.73 1.70 1.73 1.82 1.86 2.02 2.22 2.37 2.03 1.87 1.73 1.60 1.54 1.58 1.70 1.81 1.93 2.04 2.23 2.42 2.60
3.13 2.82 2.37 2.00 1.78 1.67 1.58 1.64 1.67 1.69 1.74 1.82 1.91 2.08 2.09 2.04 2.14 2.24 2.34 2.41 2.29 2.00 1.75 1.70 1.79 1.84 1.85 1.86 2.10 2.21 1.90 1.92 1.70 1.60 1.54 1.52 1.54 1.59 1.66 1.75 1.93 2.10 2.18
2.20 2.05 1.85 1.63 1.49 1.45 1.45 1.48 1.47 1.45 1.53 1.61 1.67 1.77 1.88 1.89 1.95 2.04 2.18 2.29 2.35 2.20 1.97 1.82 1.81 1.80 1.81 1.87 2.03 1.67 1.60 1.82 1.70 1.59 1.52 1.43 1.37 1.40 1.44 1.47 1.52 1.62 1.71
1.49 1.46 1.42 1.42 1.36 1.28 1.31 1.37 1.33 1.31 1.40 1.42 1.41 1.49 1.59 1.67 1.77 1.87 1.99 2.09 2.15 2.12 2.02 1.81 1.73 1.73 1.73 1.66 1.82 1.49 1.49 1.68 1.57 1.48 1.39 1.34 1.27 1.28 1.30 1.34 1.38 1.39 1.41
1.21 1.20 1.21 1.23 1.22 1.21 1.20 1.20 1.16 1.16 1.21 1.33 1.41 1.45 1.50 1.56 1.64 1.67 1.69 1.75 1.88 2.00 2.09 1.99 1.80 1.76 1.75 1.69 1.60 1.40 1.30 1.28 1.31 1.38 1.33 1.30 1.22 1.17 1.18 1.18 1.14 1.13 1.12
1.09 1.12 1.12 1.12 1.16 1.22 1.24 1.17 1.08 1.06 1.12 1.22 1.29 1.35 1.35 1.34 1.40 1.51 1.58 1.57 1.62 1.73 1.86 1.91 1.79 1.65 1.62 1.61 1.55 1.47 1.25 1.12 1.11 1.16 1.10 1.05 1.06 1.03 0.99 1.00 1.01 0.97 0.94
1.09 1.05 1.01 1.04 1.12 1.16 1.16 1.11 1.05 1.02 1.03 1.09 1.13 1.14 1.15 1.17 1.17 1.22 1.29 1.36 1.37 1.39 1.54 1.59 1.57 1.52 1.47 1.41 1.45 1.44 1.31 1.33 1.12 1.07 0.98 0.90 0.87 0.86 0.82 0.80 0.83 0.89 0.87
1.03 1.05 1.04 0.99 0.99 0.95 0.89 0.84 0.84 0.88 0.87 0.87 0.89 0.89 0.95 1.04 1.06 1.08 1.07 1.11 1.14 1.25 1.35 1.41 1.39 1.39 1.40 1.32 1.33 1.39 1.34 1.28 1.16 0.96 0.96 0.83 0.75 0.69 0.69 0.70 0.68 0.70 0.74
0.87 0.87 0.89 0.84 0.77 0.67 0.59 0.58 0.62 0.65 0.69 0.69 0.72 0.70 0.71 0.83 0.91 0.88 0.81 0.91 1.03 1.16 1.24 1.27 1.23 1.18 1.16 1.24 1.23 1.19 1.18 1.20 1.14 1.01 1.05 0.91 0.82 0.77 0.78 0.76 0.71 0.67 0.68
0.91 0.81 0.76 0.74 0.67 0.53 0.52 0.48 0.54 0.63 0.70 0.69 0.71 0.72 0.66 0.69 0.71 0.67 0.66 0.78 0.95 0.99 1.05 1.15 1.15 1.16 1.16 1.16 1.17 1.15 1.21 1.27 1.29 1.09 1.07 0.99 0.88 0.89 0.86 0.81 0.77 0.68 0.64
0.99 0.96 0.85 0.77 0.74 0.66 0.53 0.45 0.49 0.61 0.70 0.71 0.70 0.69 0.60 0.56 0.62 0.63 0.64 0.68 0.75 0.76 0.85 1.01 1.12 1.10 1.14 1.20 1.26 1.22 1.30 1.35 1.32 1.21 1.25 1.17 0.99 0.90 0.72 0.64 0.68 0.61 0.60
0.96 0.94 0.87 0.79 0.70 0.54 0.40 0.35 0.36 0.50 0.65 0.69 0.68 0.67 0.68 0.65 0.60 0.61 0.60 0.64 0.73 0.79 0.80 0.84 1.03 1.04 1.01 1.10 1.20 1.27 1.36 1.37 1.33 1.28 1.33 1.34 1.05 0.96 0.78 0.79 0.71 0.57 0.55
0.84 0.80 0.73 0.68 0.67 0.53 0.33 0.28 0.31 0.49 0.66 0.65 0.61 0.55 0.57 0.61 0.61 0.59 0.63 0.76 0.82 0.87 0.73 0.73 0.83 0.90 0.93 0.98 1.01 1.11 1.32 1.49 1.44 1.24 1.22 1.32 1.13 1.02 0.90 0.87 0.78 0.67 0.58
0.76 0.67 0.60 0.63 0.63 0.59 0.43 0.36 0.38 0.49 0.61 0.59 0.60 0.57 0.52 0.52 0.53 0.55 0.64 0.78 0.85 0.85 0.77 0.78 0.94 1.03 1.01 1.09 1.06 1.12 1.35 1.45 1.40 1.36 1.19 1.24 1.21 1.20 1.15 0.91 0.82 0.77 0.71

GEFSMA_prec_meanprecacc_234.txt.gz
Total_Precipitation_Accumulation
2.48 2.56 2.45 2.41 2.27 2.24 2.21 2.11 2.03 2.04 1.95 1.77 1.53 1.50 1.57 1.49 1.51 1.67 1.73 1.81 1.90 2.19 2.64 2.91 2.82 2.63 2.59 2.63 2.64 2.57 2.39 2.22 2.07 1.91 1.71 1.51 1.39 1.33 1.22 1.18 1.16 1.12 1.07
2.74 2.81 2.76 2.69 2.61 2.53 2.57 2.41 2.21 2.39 2.24 2.14 1.93 1.85 1.80 1.84 1.80 1.87 2.05 2.08 1.93 1.97 2.30 2.71 2.94 2.96 2.99 2.93 2.82 2.63 2.47 2.35 2.29 2.21 2.03 1.83 1.65 1.53 1.44 1.37 1.29 1.22 1.18
2.82 2.92 3.06 2.97 2.89 2.83 2.85 2.79 2.67 2.73 2.50 2.37 2.19 2.08 2.06 2.14 2.14 2.06 2.20 2.34 2.14 2.12 2.13 2.28 2.54 2.79 3.01 3.12 3.08 2.94 2.75 2.58 2.47 2.43 2.35 2.19 2.00 1.87 1.76 1.63 1.53 1.48 1.43
2.97 3.25 3.31 3.24 3.25 3.14 3.19 3.30 3.24 3.05 2.90 2.72 2.51 2.21 2.13 2.27 2.30 2.27 2.30 2.42 2.55 2.39 2.29 2.18 2.27 2.45 2.75 3.04 3.19 3.29 3.18 2.98 2.77 2.61 2.53 2.44 2.34 2.18 2.00 1.79 1.70 1.69 1.65
3.49 3.64 3.72 3.72 3.69 3.69 3.66 3.50 3.67 3.49 3.40 3.20 2.79 2.52 2.26 2.20 2.27 2.21 2.29 2.29 2.42 2.45 2.47 2.36 2.28 2.35 2.59 2.97 3.17 3.43 3.49 3.36 3.20 2.97 2.76 2.60 2.57 2.49 2.32 2.13 1.97 1.84 1.76
4.11 4.24 4.17 4.19 4.19 4.22 4.06 4.01 4.03 3.81 3.59 3.54 3.10 2.82 2.57 2.30 2.29 2.28 2.27 2.37 2.32 2.17 2.25 2.35 2.48 2.30 2.48 2.67 2.85 3.12 3.44 3.64 3.57 3.35 3.23 3.06 2.88 2.69 2.43 2.20 2.02 1.91 1.81
5.00 5.03 4.83 4.79 4.69 4.57 4.37 4.27 4.11 3.89 3.64 3.61 3.49 3.06 2.49 2.14 2.09 2.00 2.05 2.25 2.27 2.16 2.18 2.24 2.31 2.26 2.14 2.22 2.34 2.64 3.07 3.55 3.85 3.75 3.55 3.36 3.07 2.82 2.60 2.39 2.20 2.07 1.93
5.85 5.87 5.81 5.59 5.41 5.14 4.66 4.29 4.12 3.90 3.55 3.65 3.64 3.57 2.90 2.43 1.99 1.63 1.73 1.81 1.89 2.05 2.01 1.96 2.07 2.22 2.14 2.10 1.93 2.10 2.41 2.85 3.43 3.75 3.69 3.43 3.22 3.04 2.89 2.74 2.59 2.43 2.23
5.98 6.12 6.07 5.85 5.53 4.98 4.43 4.25 4.18 4.03 3.81 3.73 3.61 3.74 3.24 2.72 2.31 1.84 1.61 1.52 1.62 1.72 1.72 1.74 1.80 1.92 1.91 1.98 1.92 1.93 2.08 2.26 2.77 3.28 3.38 3.16 2.99 2.86 2.82 2.77 2.69 2.59 2.48
5.75 5.69 5.52 5.11 4.72 4.36 4.06 3.92 3.95 3.81 3.79 3.63 3.54 3.27 3.04 2.76 2.50 2.10 1.71 1.51 1.52 1.55 1.56 1.53 1.58 1.78 1.86 1.89 1.91 1.86 1.84 1.94 2.25 2.64 2.93 2.94 2.83 2.76 2.75 2.74 2.70 2.71 2.73
4.95 4.57 4.25 4.02 3.94 3.74 3.52 3.39 3.36 3.26 3.11 3.02 3.03 3.01 2.96 2.72 2.39 2.16 1.88 1.67 1.65 1.52 1.52 1.60 1.66 1.73 1.82 1.89 1.92 1.91 1.85 1.74 1.82 1.98 2.23 2.45 2.57 2.64 2.69 2.78 2.83 2.82 2.82
4.18 3.70 3.44 3.23 3.10 2.92 2.71 2.58 2.55 2.57 2.65 2.70 2.75 2.75 2.71 2.68 2.53 2.44 2.22 1.96 1.84 1.76 1.68 1.65 1.71 1.80 1.95 2.05 2.04 2.22 1.92 1.74 1.70 1.72 1.78 1.94 2.11 2.27 2.41 2.58 2.78 2.87 2.93
3.78 3.31 2.88 2.66 2.43 2.22 2.11 2.07 2.03 2.02 2.13 2.26 2.38 2.43 2.43 2.37 2.34 2.40 2.46 2.22 1.98 1.85 1.74 1.71 1.74 1.83 1.87 2.03 2.22 2.38 2.04 1.89 1.74 1.63 1.58 1.64 1.78 1.88 1.99 2.10 2.31 2.50 2.68
3.15 2.85 2.41 2.04 1.83 1.70 1.60 1.67 1.70 1.71 1.76 1.85 1.94 2.11 2.12 2.07 2.16 2.25 2.35 2.42 2.30 2.01 1.76 1.72 1.80 1.85 1.86 1.87 2.10 2.22 1.92 1.94 1.72 1.61 1.56 1.56 1.60 1.66 1.72 1.81 2.00 2.19 2.28
2.22 2.07 1.87 1.65 1.52 1.48 1.49 1.52 1.51 1.49 1.57 1.65 1.71 1.82 1.92 1.92 1.98 2.06 2.19 2.31 2.38 2.23 1.99 1.83 1.83 1.81 1.82 1.88 2.04 1.68 1.61 1.85 1.73 1.62 1.54 1.45 1.40 1.44 1.48 1.52 1.58 1.69 1.79
1.51 1.49 1.45 1.44 1.38 1.31 1.34 1.41 1.36 1.36 1.46 1.48 1.46 1.54 1.64 1.71 1.81 1.91 2.03 2.12 2.18 2.16 2.06 1.84 1.75 1.74 1.74 1.67 1.83 1.50 1.50 1.70 1.59 1.50 1.41 1.36 1.29 1.30 1.33 1.38 1.42 1.44 1.46
1.22 1.22 1.24 1.26 1.26 1.24 1.23 1.24 1.21 1.21 1.27 1.41 1.49 1.52 1.58 1.62 1.69 1.70 1.73 1.78 1.90 2.02 2.12 2.02 1.83 1.78 1.77 1.70 1.61 1.42 1.32 1.30 1.32 1.39 1.35 1.31 1.24 1.18 1.20 1.21 1.18 1.17 1.16
1.10 1.13 1.15 1.15 1.19 1.25 1.27 1.21 1.11 1.10 1.18 1.29 1.36 1.43 1.43 1.40 1.45 1.55 1.61 1.60 1.65 1.76 1.88 1.94 1.82 1.67 1.63 1.62 1.57 1.49 1.27 1.14 1.13 1.18 1.11 1.06 1.07 1.04 1.00 1.02 1.04 1.00 0.97
1.10 1.06 1.02 1.06 1.14 1.19 1.19 1.16 1.09 1.07 1.08 1.14 1.19 1.20 1.20 1.22 1.21 1.25 1.32 1.38 1.39 1.42 1.57 1.62 1.61 1.56 1.51 1.44 1.47 1.46 1.33 1.35 1.15 1.10 1.00 0.92 0.89 0.87 0.83 0.81 0.85 0.92 0.90
1.04 1.06 1.05 1.00 1.00 0.96 0.90 0.87 0.88 0.91 0.90 0.90 0.92 0.93 0.99 1.08 1.10 1.12 1.10 1.14 1.17 1.29 1.39 1.46 1.43 1.44 1.46 1.36 1.36 1.41 1.37 1.30 1.18 0.98 0.98 0.85 0.77 0.70 0.70 0.71 0.70 0.72 0.77
0.88 0.88 0.90 0.85 0.78 0.67 0.60 0.59 0.64 0.67 0.70 0.71 0.73 0.72 0.73 0.87 0.96 0.93 0.86 0.96 1.08 1.21 1.29 1.33 1.28 1.24 1.23 1.30 1.28 1.22 1.22 1.23 1.17 1.03 1.06 0.93 0.84 0.78 0.79 0.77 0.73 0.68 0.70
0.92 0.82 0.77 0.75 0.68 0.53 0.52 0.50 0.55 0.64 0.71 0.70 0.72 0.73 0.67 0.71 0.75 0.72 0.71 0.83 0.99 1.03 1.09 1.20 1.21 1.22 1.22 1.23 1.20 1.18 1.25 1.31 1.33 1.12 1.08 1.01 0.90 0.91 0.87 0.82 0.77 0.69 0.65
1.00 0.96 0.85 0.78 0.75 0.66 0.54 0.46 0.50 0.62 0.71 0.72 0.71 0.70 0.61 0.58 0.65 0.66 0.67 0.71 0.78 0.79 0.88 1.06 1.19 1.18 1.20 1.27 1.30 1.25 1.33 1.38 1.35 1.25 1.28 1.21 1.02 0.92 0.73 0.66 0.69 0.62 0.61
0.97 0.94 0.88 0.80 0.72 0.56 0.41 0.36 0.37 0.51 0.66 0.70 0.69 0.69 0.70 0.66 0.62 0.63 0.62 0.65 0.74 0.80 0.81 0.86 1.07 1.08 1.06 1.16 1.25 1.31 1.39 1.40 1.37 1.32 1.37 1.37 1.08 0.98 0.80 0.80 0.73 0.59 0.57
0.85 0.81 0.74 0.69 0.68 0.54 0.35 0.29 0.33 0.51 0.67 0.66 0.62 0.57 0.59 0.63 0.62 0.61 0.65 0.77 0.83 0.88 0.74 0.75 0.85 0.94 0.97 1.04 1.07 1.17 1.38 1.54 1.49 1.30 1.27 1.36 1.16 1.05 0.93 0.90 0.80 0.70 0.60
0.77 0.69 0.61 0.63 0.65 0.60 0.44 0.37 0.39 0.50 0.61 0.60 0.61 0.58 0.53 0.53 0.54 0.56 0.65 0.79 0.86 0.86 0.79 0.79 0.96 1.06 1.05 1.13 1.12 1.19 1.41 1.51 1.45 1.41 1.24 1.28 1.25 1.24 1.18 0.94 0.85 0.79 0.73

GEFSMA_prec_meanprecacc_240.txt.gz
Total_Precipitation_Accumulation
2.52 2.61 2.51 2.49 2.33 2.30 2.31 2.21 2.09 2.09 1.99 1.80 1.55 1.53 1.61 1.55 1.56 1.72 1.77 1.85 1.94 2.24 2.72 2.99 2.95 2.76 2.71 2.75 2.76 2.66 2.47 2.29 2.18 1.99 1.78 1.59 1.47 1.39 1.27 1.22 1.20 1.15 1.10
2.78 2.87 2.82 2.75 2.67 2.59 2.65 2.47 2.26 2.43 2.28 2.17 1.95 1.87 1.83 1.89 1.87 1.94 2.11 2.13 1.97 2.00 2.35 2.78 3.02 3.09 3.11 3.05 2.92 2.70 2.53 2.42 2.41 2.30 2.10 1.90 1.73 1.60 1.50 1.43 1.34 1.26 1.21
2.86 2.96 3.11 3.02 2.94 2.90 2.92 2.84 2.71 2.77 2.53 2.40 2.23 2.11 2.09 2.18 2.19 2.14 2.27 2.40 2.18 2.15 2.17 2.32 2.58 2.85 3.08 3.21 3.19 3.03 2.80 2.63 2.54 2.49 2.42 2.27 2.08 1.95 1.83 1.70 1.60 1.54 1.49
3.01 3.29 3.36 3.28 3.30 3.19 3.26 3.38 3.29 3.09 2.93 2.75 2.56 2.25 2.17 2.31 2.36 2.36 2.39 2.48 2.61 2.43 2.33 2.23 2.30 2.48 2.78 3.08 3.26 3.38 3.26 3.03 2.81 2.65 2.57 2.50 2.40 2.24 2.08 1.87 1.77 1.77 1.73
3.54 3.70 3.77 3.76 3.73 3.74 3.72 3.56 3.73 3.54 3.43 3.24 2.83 2.56 2.30 2.24 2.31 2.25 2.35 2.33 2.47 2.50 2.51 2.39 2.31 2.37 2.61 3.00 3.21 3.47 3.56 3.43 3.26 3.01 2.80 2.64 2.61 2.53 2.37 2.19 2.03 1.89 1.82
4.15 4.28 4.21 4.23 4.24 4.27 4.10 4.06 4.10 3.87 3.64 3.58 3.14 2.86 2.61 2.34 2.32 2.31 2.30 2.40 2.36 2.20 2.29 2.39 2.52 2.34 2.52 2.71 2.88 3.16 3.49 3.70 3.64 3.40 3.27 3.10 2.91 2.72 2.45 2.24 2.07 1.96 1.86
5.06 5.08 4.88 4.83 4.73 4.60 4.39 4.30 4.14 3.93 3.68 3.66 3.54 3.10 2.52 2.17 2.11 2.03 2.07 2.28 2.30 2.18 2.21 2.27 2.35 2.29 2.18 2.25 2.37 2.66 3.10 3.59 3.89 3.80 3.59 3.40 3.11 2.86 2.63 2.41 2.24 2.13 1.98
5.90 5.93 5.87 5.66 5.48 5.19 4.70 4.33 4.16 3.93 3.58 3.68 3.70 3.62 2.94 2.46 2.01 1.65 1.75 1.82 1.91 2.07 2.04 1.99 2.09 2.24 2.16 2.13 1.94 2.12 2.43 2.87 3.46 3.79 3.74 3.47 3.27 3.08 2.93 2.77 2.62 2.47 2.28
6.02 6.16 6.11 5.90 5.59 5.05 4.49 4.30 4.23 4.07 3.84 3.77 3.66 3.80 3.28 2.75 2.33 1.86 1.62 1.54 1.65 1.75 1.74 1.76 1.81 1.92 1.92 2.00 1.93 1.94 2.09 2.27 2.79 3.32 3.43 3.22 3.04 2.90 2.84 2.79 2.72 2.62 2.52
5.80 5.73 5.56 5.14 4.76 4.41 4.12 3.98 4.00 3.87 3.85 3.68 3.60 3.31 3.07 2.79 2.53 2.13 1.73 1.52 1.55 1.57 1.58 1.55 1.60 1.79 1.87 1.90 1.92 1.87 1.84 1.95 2.26 2.67 2.96 2.99 2.89 2.82 2.79 2.76 2.73 2.74 2.76
4.98 4.60 4.28 4.06 3.98 3.78 3.57 3.44 3.42 3.32 3.16 3.07 3.08 3.05 2.99 2.75 2.42 2.19 1.91 1.69 1.67 1.54 1.53 1.62 1.68 1.75 1.84 1.90 1.94 1.92 1.85 1.74 1.83 2.00 2.25 2.47 2.61 2.70 2.76 2.83 2.87 2.86 2.87
4.21 3.72 3.46 3.25 3.13 2.96 2.76 2.64 2.61 2.62 2.70 2.74 2.79 2.79 2.75 2.71 2.55 2.47 2.26 2.00 1.87 1.78 1.70 1.67 1.73 1.82 1.96 2.06 2.05 2.23 1.93 1.74 1.70 1.72 1.79 1.95 2.14 2.31 2.46 2.64 2.83 2.91 2.97
3.80 3.33 2.90 2.68 2.45 2.25 2.14 2.12 2.09 2.09 2.19 2.31 2.42 2.47 2.46 2.40 2.37 2.44 2.50 2.26 2.02 1.88 1.77 1.73 1.75 1.85 1.89 2.04 2.24 2.39 2.05 1.89 1.75 1.63 1.58 1.65 1.79 1.92 2.03 2.14 2.36 2.55 2.72
3.18 2.87 2.44 2.08 1.86 1.73 1.63 1.70 1.73 1.75 1.81 1.90 1.98 2.15 2.16 2.10 2.20 2.30 2.39 2.47 2.35 2.04 1.79 1.75 1.83 1.87 1.88 1.88 2.12 2.23 1.93 1.94 1.72 1.61 1.56 1.56 1.60 1.67 1.75 1.85 2.04 2.22 2.31
2.25 2.10 1.90 1.69 1.57 1.52 1.52 1.55 1.54 1.52 1.60 1.69 1.75 1.86 1.96 1.96 2.02 2.11 2.24 2.36 2.43 2.27 2.03 1.87 1.87 1.84 1.85 1.90 2.06 1.69 1.63 1.85 1.73 1.62 1.54 1.45 1.41 1.45 1.50 1.55 1.60 1.72 1.82
1.55 1.53 1.48 1.48 1.42 1.35 1.40 1.46 1.41 1.39 1.50 1.52 1.51 1.59 1.68 1.75 1.86 1.95 2.08 2.17 2.24 2.22 2.11 1.89 1.81 1.78 1.77 1.69 1.85 1.52 1.53 1.71 1.59 1.50 1.42 1.36 1.31 1.32 1.34 1.40 1.45 1.47 1.49
1.27 1.27 1.28 1.29 1.28 1.27 1.28 1.29 1.26 1.27 1.33 1.46 1.55 1.59 1.63 1.67 1.75 1.76 1.79 1.84 1.97 2.09 2.18 2.08 1.89 1.82 1.81 1.74 1.64 1.45 1.35 1.33 1.35 1.40 1.35 1.32 1.25 1.20 1.21 1.23 1.20 1.19 1.19
1.12 1.16 1.17 1.17 1.22 1.28 1.31 1.25 1.16 1.14 1.23 1.34 1.43 1.50 1.49 1.46 1.52 1.62 1.68 1.67 1.72 1.83 1.95 2.01 1.88 1.73 1.69 1.67 1.62 1.53 1.30 1.17 1.17 1.20 1.12 1.08 1.09 1.06 1.01 1.03 1.05 1.02 0.99
1.11 1.08 1.04 1.08 1.16 1.22 1.23 1.20 1.14 1.12 1.13 1.20 1.24 1.25 1.27 1.30 1.28 1.32 1.38 1.44 1.46 1.49 1.63 1.69 1.66 1.60 1.55 1.49 1.52 1.49 1.36 1.39 1.17 1.11 1.01 0.93 0.91 0.89 0.85 0.83 0.87 0.94 0.91
1.07 1.09 1.07 1.03 1.03 0.99 0.93 0.91 0.91 0.95 0.95 0.95 0.97 0.99 1.06 1.16 1.18 1.21 1.18 1.23 1.26 1.37 1.46 1.52 1.49 1.48 1.50 1.40 1.40 1.45 1.41 1.35 1.22 1.01 1.00 0.87 0.79 0.72 0.71 0.73 0.71 0.74 0.79
0.90 0.91 0.92 0.87 0.80 0.69 0.61 0.61 0.66 0.70 0.74 0.75 0.77 0.75 0.77 0.91 1.01 0.99 0.92 1.03 1.16 1.31 1.37 1.40 1.35 1.29 1.27 1.34 1.32 1.27 1.27 1.29 1.22 1.08 1.11 0.96 0.87 0.81 0.81 0.79 0.74 0.70 0.72
0.93 0.84 0.79 0.77 0.70 0.54 0.53 0.50 0.58 0.68 0.75 0.74 0.76 0.76 0.69 0.73 0.77 0.75 0.74 0.87 1.06 1.10 1.18 1.29 1.30 1.27 1.27 1.29 1.26 1.24 1.31 1.37 1.37 1.16 1.14 1.06 0.96 0.96 0.91 0.85 0.79 0.70 0.67
1.02 0.98 0.87 0.81 0.77 0.69 0.56 0.48 0.52 0.66 0.76 0.77 0.76 0.74 0.64 0.60 0.67 0.69 0.70 0.74 0.82 0.83 0.93 1.13 1.27 1.23 1.24 1.32 1.36 1.31 1.39 1.44 1.39 1.29 1.32 1.27 1.08 0.99 0.79 0.71 0.74 0.65 0.63
1.01 0.96 0.90 0.82 0.74 0.58 0.43 0.38 0.41 0.54 0.70 0.75 0.73 0.72 0.73 0.69 0.65 0.66 0.65 0.69 0.78 0.83 0.84 0.90 1.12 1.14 1.10 1.21 1.31 1.37 1.46 1.46 1.41 1.37 1.41 1.42 1.13 1.03 0.84 0.84 0.77 0.63 0.59
0.90 0.85 0.76 0.71 0.69 0.56 0.37 0.31 0.35 0.52 0.69 0.69 0.65 0.59 0.62 0.65 0.65 0.63 0.67 0.80 0.87 0.92 0.77 0.78 0.88 0.97 1.00 1.07 1.13 1.23 1.44 1.59 1.53 1.34 1.32 1.40 1.20 1.09 0.97 0.93 0.84 0.72 0.63
0.80 0.72 0.63 0.66 0.67 0.62 0.47 0.39 0.41 0.52 0.64 0.63 0.63 0.60 0.55 0.55 0.56 0.57 0.67 0.81 0.90 0.90 0.82 0.82 0.98 1.08 1.07 1.15 1.16 1.25 1.48 1.56 1.49 1.45 1.28 1.32 1.29 1.27 1.23 0.98 0.88 0.81 0.76

GEFSMA_prec_meanprecacc_246.txt.gz
Total_Precipitation_Accumulation
2.58 2.66 2.58 2.57 2.40 2.36 2.37 2.26 2.15 2.16 2.07 1.86 1.60 1.57 1.66 1.62 1.65 1.82 1.83 1.91 1.99 2.31 2.80 3.08 3.03 2.83 2.78 2.84 2.84 2.75 2.55 2.38 2.26 2.06 1.83 1.64 1.52 1.45 1.32 1.27 1.24 1.18 1.14
2.83 2.92 2.87 2.80 2.71 2.64 2.71 2.54 2.33 2.54 2.38 2.24 2.01 1.95 1.90 1.97 1.95 2.00 2.17 2.20 2.03 2.06 2.42 2.87 3.12 3.19 3.19 3.12 2.99 2.77 2.61 2.51 2.50 2.37 2.16 1.95 1.78 1.66 1.55 1.48 1.38 1.29 1.24
2.92 3.02 3.16 3.07 2.99 2.94 2.99 2.92 2.81 2.88 2.61 2.45 2.28 2.19 2.18 2.28 2.27 2.20 2.33 2.46 2.25 2.21 2.23 2.40 2.67 2.91 3.15 3.28 3.25 3.09 2.87 2.72 2.64 2.58 2.50 2.33 2.12 1.99 1.88 1.75 1.65 1.58 1.52
3.08 3.36 3.43 3.36 3.36 3.26 3.34 3.45 3.37 3.17 3.02 2.82 2.61 2.31 2.23 2.41 2.48 2.47 2.48 2.54 2.66 2.48 2.38 2.27 2.35 2.52 2.82 3.13 3.30 3.43 3.32 3.10 2.90 2.74 2.65 2.56 2.45 2.28 2.12 1.92 1.82 1.81 1.76
3.59 3.77 3.85 3.83 3.81 3.84 3.80 3.63 3.80 3.59 3.49 3.30 2.88 2.60 2.34 2.28 2.36 2.33 2.46 2.43 2.53 2.54 2.57 2.44 2.35 2.41 2.63 3.02 3.23 3.50 3.59 3.48 3.33 3.08 2.86 2.68 2.65 2.56 2.41 2.24 2.08 1.94 1.86
4.20 4.36 4.27 4.28 4.31 4.36 4.19 4.15 4.19 3.95 3.70 3.64 3.18 2.91 2.65 2.38 2.36 2.37 2.41 2.54 2.45 2.25 2.34 2.44 2.55 2.37 2.54 2.73 2.90 3.17 3.51 3.72 3.67 3.46 3.33 3.15 2.96 2.76 2.48 2.27 2.11 2.01 1.90
5.10 5.14 4.92 4.89 4.80 4.68 4.48 4.39 4.24 4.01 3.76 3.75 3.63 3.18 2.59 2.22 2.15 2.06 2.12 2.37 2.40 2.27 2.29 2.33 2.40 2.33 2.20 2.26 2.38 2.68 3.12 3.61 3.92 3.83 3.64 3.45 3.16 2.90 2.67 2.44 2.26 2.16 2.02
5.94 5.95 5.91 5.70 5.53 5.27 4.79 4.42 4.25 4.01 3.65 3.77 3.80 3.72 3.02 2.53 2.06 1.68 1.78 1.86 1.95 2.14 2.11 2.05 2.16 2.29 2.18 2.15 1.95 2.13 2.44 2.89 3.48 3.81 3.76 3.50 3.31 3.12 2.96 2.80 2.64 2.49 2.31
6.06 6.19 6.14 5.93 5.64 5.11 4.57 4.39 4.33 4.15 3.91 3.84 3.74 3.90 3.36 2.82 2.38 1.90 1.65 1.56 1.68 1.78 1.78 1.81 1.86 1.98 1.97 2.02 1.95 1.95 2.10 2.28 2.80 3.33 3.45 3.24 3.07 2.93 2.87 2.82 2.75 2.65 2.54
5.83 5.77 5.59 5.18 4.81 4.46 4.18 4.04 4.09 3.96 3.93 3.76 3.67 3.39 3.15 2.87 2.58 2.18 1.76 1.55 1.58 1.61 1.63 1.60 1.64 1.83 1.90 1.94 1.95 1.89 1.86 1.95 2.27 2.68 2.97 3.01 2.91 2.85 2.83 2.79 2.75 2.77 2.79
5.01 4.64 4.32 4.11 4.02 3.83 3.63 3.51 3.51 3.41 3.26 3.17 3.16 3.11 3.04 2.82 2.48 2.24 1.96 1.75 1.72 1.56 1.56 1.66 1.72 1.79 1.88 1.94 1.97 1.94 1.88 1.75 1.84 2.00 2.25 2.48 2.63 2.73 2.80 2.89 2.92 2.89 2.90
4.24 3.76 3.50 3.30 3.18 3.01 2.81 2.70 2.68 2.70 2.78 2.83 2.89 2.87 2.81 2.77 2.60 2.51 2.29 2.04 1.92 1.81 1.73 1.69 1.75 1.85 2.00 2.10 2.08 2.26 1.95 1.76 1.71 1.73 1.79 1.95 2.15 2.33 2.49 2.68 2.90 2.98 3.02
3.86 3.39 2.96 2.74 2.51 2.31 2.20 2.18 2.16 2.16 2.27 2.39 2.49 2.53 2.52 2.46 2.43 2.50 2.56 2.31 2.07 1.92 1.81 1.76 1.77 1.87 1.91 2.08 2.29 2.43 2.07 1.91 1.76 1.63 1.59 1.65 1.80 1.92 2.04 2.17 2.39 2.61 2.79
3.24 2.93 2.49 2.14 1.92 1.78 1.68 1.77 1.80 1.82 1.88 1.97 2.05 2.22 2.22 2.16 2.26 2.36 2.45 2.52 2.40 2.09 1.84 1.79 1.86 1.90 1.90 1.91 2.15 2.27 1.95 1.96 1.74 1.62 1.57 1.57 1.61 1.68 1.76 1.86 2.06 2.26 2.37
2.29 2.15 1.95 1.74 1.61 1.57 1.57 1.60 1.59 1.58 1.67 1.76 1.82 1.95 2.03 2.02 2.09 2.17 2.31 2.43 2.49 2.32 2.08 1.94 1.93 1.88 1.88 1.94 2.10 1.73 1.68 1.89 1.75 1.63 1.55 1.45 1.41 1.46 1.50 1.56 1.62 1.74 1.85
1.59 1.57 1.53 1.52 1.45 1.39 1.44 1.52 1.46 1.45 1.56 1.58 1.58 1.68 1.77 1.82 1.93 2.02 2.14 2.24 2.30 2.26 2.16 1.94 1.88 1.83 1.81 1.72 1.88 1.57 1.59 1.76 1.63 1.52 1.43 1.37 1.31 1.32 1.35 1.40 1.46 1.48 1.51
1.31 1.31 1.32 1.33 1.32 1.30 1.32 1.34 1.31 1.32 1.38 1.53 1.61 1.65 1.71 1.75 1.82 1.81 1.83 1.89 2.02 2.14 2.23 2.14 1.95 1.88 1.88 1.80 1.70 1.51 1.41 1.40 1.39 1.43 1.37 1.33 1.26 1.20 1.22 1.23 1.20 1.20 1.21
1.18 1.20 1.20 1.20 1.24 1.31 1.34 1.29 1.20 1.20 1.28 1.41 1.50 1.58 1.57 1.55 1.61 1.68 1.73 1.72 1.77 1.89 2.01 2.07 1.94 1.78 1.77 1.75 1.69 1.61 1.36 1.22 1.22 1.23 1.15 1.09 1.10 1.07 1.02 1.03 1.05 1.02 1.00
1.18 1.15 1.10 1.13 1.20 1.25 1.26 1.23 1.18 1.16 1.18 1.25 1.31 1.33 1.34 1.37 1.34 1.38 1.44 1.50 1.52 1.54 1.70 1.76 1.74 1.68 1.63 1.56 1.61 1.58 1.43 1.46 1.21 1.14 1.04 0.95 0.92 0.90 0.86 0.84 0.88 0.94 0.92
1.13 1.17 1.12 1.08 1.08 1.02 0.96 0.93 0.94 0.99 0.99 1.01 1.04 1.06 1.12 1.21 1.24 1.27 1.26 1.30 1.33 1.45 1.54 1.61 1.57 1.56 1.57 1.46 1.48 1.53 1.48 1.41 1.27 1.04 1.02 0.88 0.80 0.73 0.72 0.74 0.73 0.75 0.80
0.93 0.95 0.96 0.92 0.86 0.74 0.65 0.65 0.70 0.74 0.80 0.82 0.84 0.82 0.82 0.97 1.08 1.05 0.97 1.08 1.22 1.38 1.45 1.48 1.42 1.35 1.32 1.39 1.38 1.33 1.33 1.35 1.29 1.14 1.15 0.98 0.88 0.82 0.82 0.80 0.76 0.71 0.73
0.96 0.87 0.81 0.80 0.74 0.58 0.58 0.55 0.61 0.74 0.82 0.81 0.83 0.83 0.75 0.78 0.81 0.80 0.79 0.92 1.11 1.16 1.26 1.38 1.38 1.35 1.32 1.34 1.32 1.31 1.38 1.43 1.44 1.21 1.18 1.10 0.99 0.99 0.93 0.87 0.81 0.71 0.68
1.05 1.01 0.90 0.84 0.82 0.75 0.61 0.51 0.55 0.70 0.82 0.83 0.83 0.81 0.70 0.64 0.71 0.73 0.74 0.78 0.86 0.87 0.98 1.21 1.36 1.31 1.32 1.38 1.44 1.39 1.47 1.51 1.45 1.34 1.38 1.32 1.12 1.02 0.81 0.73 0.76 0.67 0.65
1.05 1.00 0.93 0.86 0.78 0.62 0.47 0.41 0.43 0.58 0.76 0.80 0.79 0.79 0.80 0.74 0.69 0.70 0.69 0.74 0.83 0.88 0.89 0.94 1.17 1.21 1.18 1.29 1.40 1.46 1.53 1.51 1.46 1.41 1.46 1.46 1.16 1.07 0.87 0.87 0.80 0.65 0.62
0.94 0.88 0.79 0.76 0.74 0.60 0.39 0.33 0.39 0.57 0.73 0.74 0.69 0.63 0.67 0.70 0.68 0.65 0.71 0.85 0.92 0.97 0.81 0.81 0.92 1.02 1.05 1.13 1.21 1.30 1.50 1.64 1.57 1.38 1.36 1.44 1.24 1.13 1.02 0.97 0.86 0.75 0.65
0.85 0.78 0.68 0.70 0.71 0.68 0.50 0.40 0.43 0.55 0.69 0.69 0.68 0.64 0.58 0.57 0.57 0.59 0.70 0.84 0.93 0.94 0.86 0.86 1.03 1.12 1.10 1.19 1.21 1.31 1.54 1.62 1.54 1.50 1.33 1.37 1.33 1.31 1.27 1.02 0.92 0.84 0.78

GEFSMA_prec_meanprecacc_252.txt.gz
Total_Precipitation_Accumulation
2.62 2.70 2.61 2.58 2.40 2.37 2.38 2.28 2.18 2.19 2.11 1.90 1.65 1.63 1.71 1.67 1.72 1.90 1.90 2.02 2.09 2.41 2.91 3.19 3.16 2.99 2.94 2.98 2.95 2.84 2.63 2.45 2.34 2.12 1.88 1.69 1.57 1.50 1.37 1.31 1.28 1.22 1.18
2.87 2.94 2.89 2.81 2.72 2.65 2.73 2.56 2.38 2.58 2.43 2.30 2.07 2.01 1.96 2.03 2.01 2.06 2.22 2.28 2.13 2.17 2.56 3.00 3.24 3.33 3.33 3.23 3.10 2.86 2.69 2.58 2.58 2.43 2.22 2.01 1.83 1.70 1.59 1.51 1.40 1.32 1.27
2.97 3.06 3.19 3.10 3.03 2.99 3.03 2.97 2.88 2.96 2.69 2.53 2.36 2.25 2.24 2.33 2.32 2.23 2.35 2.50 2.32 2.32 2.39 2.55 2.79 3.02 3.27 3.39 3.34 3.17 2.95 2.79 2.72 2.65 2.56 2.39 2.17 2.02 1.91 1.77 1.67 1.61 1.54
3.11 3.41 3.48 3.41 3.42 3.33 3.43 3.53 3.44 3.24 3.07 2.88 2.69 2.37 2.27 2.44 2.50 2.49 2.50 2.57 2.71 2.55 2.48 2.39 2.46 2.61 2.90 3.22 3.38 3.51 3.39 3.18 2.98 2.82 2.72 2.62 2.50 2.32 2.15 1.94 1.85 1.83 1.79
3.60 3.79 3.89 3.89 3.88 3.90 3.89 3.72 3.87 3.65 3.55 3.35 2.93 2.65 2.37 2.31 2.39 2.35 2.48 2.45 2.56 2.59 2.62 2.51 2.44 2.49 2.71 3.10 3.30 3.57 3.65 3.55 3.40 3.15 2.95 2.78 2.73 2.62 2.45 2.28 2.11 1.97 1.89
4.24 4.40 4.31 4.33 4.36 4.42 4.27 4.22 4.26 4.03 3.77 3.70 3.24 2.96 2.69 2.42 2.40 2.40 2.43 2.55 2.47 2.28 2.39 2.48 2.60 2.43 2.61 2.80 2.97 3.24 3.58 3.79 3.73 3.52 3.40 3.23 3.04 2.83 2.54 2.31 2.15 2.04 1.93
5.14 5.19 4.97 4.94 4.85 4.72 4.52 4.45 4.31 4.08 3.82 3.82 3.70 3.23 2.63 2.27 2.20 2.10 2.15 2.39 2.43 2.30 2.32 2.38 2.42 2.35 2.23 2.33 2.44 2.73 3.17 3.67 3.98 3.88 3.69 3.50 3.21 2.96 2.73 2.48 2.29 2.18 2.05
5.95 5.97 5.94 5.72 5.56 5.30 4.82 4.46 4.31 4.08 3.71 3.83 3.85 3.77 3.06 2.57 2.10 1.70 1.81 1.88 1.98 2.19 2.15 2.08 2.19 2.31 2.20 2.17 1.99 2.18 2.48 2.93 3.53 3.86 3.81 3.55 3.35 3.16 3.00 2.84 2.67 2.51 2.32
6.07 6.20 6.15 5.95 5.65 5.14 4.60 4.43 4.37 4.20 3.94 3.88 3.79 3.93 3.40 2.86 2.42 1.92 1.68 1.58 1.70 1.81 1.82 1.84 1.88 1.99 1.99 2.05 1.98 1.99 2.13 2.31 2.84 3.38 3.49 3.28 3.10 2.97 2.92 2.87 2.79 2.67 2.56
5.84 5.77 5.60 5.19 4.82 4.48 4.20 4.07 4.12 4.00 3.98 3.80 3.70 3.41 3.18 2.90 2.63 2.21 1.78 1.56 1.60 1.63 1.65 1.62 1.66 1.85 1.93 1.97 1.98 1.91 1.88 1.97 2.29 2.71 3.01 3.05 2.94 2.89 2.88 2.84 2.80 2.80 2.81
5.02 4.64 4.33 4.11 4.03 3.85 3.65 3.53 3.53 3.45 3.30 3.22 3.19 3.14 3.08 2.84 2.50 2.28 1.98 1.76 1.75 1.60 1.59 1.68 1.74 1.82 1.91 1.97 2.01 1.98 1.91 1.78 1.86 2.02 2.28 2.52 2.66 2.75 2.84 2.94 2.97 2.94 2.94
4.25 3.76 3.50 3.30 3.18 3.02 2.82 2.71 2.70 2.72 2.80 2.87 2.94 2.90 2.83 2.79 2.61 2.53 2.32 2.06 1.96 1.85 1.77 1.74 1.80 1.88 2.03 2.14 2.11 2.28 1.99 1.78 1.72 1.74 1.81 1.97 2.18 2.36 2.52 2.72 2.94 3.04 3.08
3.86 3.40 2.96 2.75 2.52 2.32 2.21 2.20 2.19 2.18 2.29 2.41 2.52 2.58 2.56 2.48 2.45 2.52 2.59 2.34 2.09 1.95 1.85 1.81 1.83 1.91 1.94 2.11 2.33 2.45 2.10 1.94 1.78 1.65 1.61 1.67 1.82 1.95 2.06 2.19 2.42 2.65 2.85
3.25 2.94 2.50 2.15 1.93 1.79 1.69 1.78 1.81 1.84 1.90 2.00 2.09 2.28 2.28 2.20 2.30 2.40 2.51 2.58 2.45 2.13 1.88 1.82 1.90 1.94 1.94 1.95 2.19 2.31 1.98 2.00 1.77 1.66 1.60 1.59 1.62 1.69 1.78 1.88 2.08 2.29 2.42
2.31 2.16 1.97 1.76 1.63 1.59 1.59 1.62 1.61 1.60 1.69 1.79 1.86 2.01 2.12 2.09 2.15 2.22 2.36 2.47 2.52 2.35 2.11 1.97 1.95 1.89 1.89 1.96 2.14 1.77 1.71 1.92 1.78 1.65 1.57 1.48 1.43 1.47 1.52 1.57 1.64 1.76 1.87
1.61 1.58 1.55 1.54 1.48 1.42 1.47 1.55 1.49 1.47 1.58 1.60 1.60 1.71 1.81 1.88 1.98 2.06 2.19 2.28 2.33 2.29 2.17 1.96 1.90 1.85 1.82 1.74 1.91 1.59 1.61 1.79 1.66 1.56 1.46 1.39 1.33 1.34 1.37 1.42 1.48 1.50 1.52
1.33 1.33 1.35 1.36 1.35 1.33 1.34 1.36 1.32 1.33 1.39 1.54 1.63 1.68 1.73 1.79 1.87 1.86 1.87 1.92 2.04 2.17 2.25 2.16 1.96 1.90 1.91 1.83 1.73 1.54 1.43 1.42 1.42 1.47 1.42 1.37 1.29 1.23 1.24 1.26 1.24 1.24 1.24
1.21 1.24 1.24 1.24 1.28 1.34 1.37 1.31 1.22 1.21 1.30 1.42 1.52 1.60 1.60 1.58 1.65 1.73 1.79 1.76 1.80 1.92 2.04 2.09 1.96 1.81 1.81 1.79 1.74 1.67 1.40 1.27 1.27 1.28 1.21 1.14 1.13 1.09 1.04 1.06 1.07 1.05 1.03
1.24 1.20 1.15 1.17 1.23 1.28 1.28 1.24 1.19 1.18 1.20 1.28 1.34 1.36 1.37 1.41 1.38 1.41 1.48 1.55 1.55 1.57 1.72 1.79 1.77 1.72 1.68 1.62 1.68 1.65 1.50 1.52 1.26 1.18 1.07 0.98 0.95 0.92 0.88 0.86 0.90 0.96 0.94
1.19 1.22 1.17 1.12 1.11 1.05 0.98 0.94 0.95 1.00 1.01 1.03 1.07 1.09 1.15 1.24 1.26 1.30 1.28 1.33 1.36 1.48 1.56 1.63 1.59 1.58 1.59 1.50 1.52 1.58 1.53 1.44 1.30 1.07 1.06 0.92 0.83 0.76 0.75 0.76 0.75 0.77 0.82
0.97 1.00 1.02 0.97 0.89 0.77 0.67 0.66 0.72 0.76 0.82 0.84 0.87 0.85 0.85 1.00 1.10 1.08 0.99 1.10 1.25 1.40 1.47 1.51 1.45 1.37 1.34 1.41 1.40 1.37 1.40 1.40 1.32 1.18 1.20 1.02 0.92 0.85 0.84 0.82 0.77 0.73 0.75
0.98 0.91 0.85 0.84 0.77 0.61 0.61 0.58 0.64 0.76 0.84 0.83 0.85 0.85 0.78 0.82 0.86 0.83 0.81 0.94 1.13 1.18 1.28 1.40 1.41 1.37 1.34 1.36 1.37 1.36 1.43 1.49 1.51 1.31 1.26 1.16 1.04 1.04 0.97 0.89 0.83 0.74 0.70
1.07 1.03 0.92 0.87 0.85 0.77 0.64 0.52 0.57 0.72 0.84 0.85 0.85 0.83 0.72 0.68 0.75 0.76 0.77 0.80 0.88 0.90 1.01 1.24 1.39 1.34 1.34 1.42 1.49 1.46 1.56 1.60 1.51 1.40 1.45 1.38 1.17 1.07 0.86 0.77 0.80 0.69 0.67
1.07 1.02 0.95 0.88 0.80 0.64 0.49 0.43 0.45 0.60 0.78 0.82 0.81 0.81 0.83 0.76 0.72 0.72 0.71 0.76 0.84 0.89 0.91 0.97 1.20 1.23 1.20 1.32 1.44 1.52 1.61 1.57 1.49 1.44 1.49 1.50 1.20 1.12 0.91 0.91 0.83 0.69 0.65
0.96 0.90 0.81 0.77 0.76 0.62 0.41 0.35 0.41 0.58 0.76 0.76 0.72 0.66 0.71 0.73 0.71 0.67 0.72 0.86 0.93 0.98 0.83 0.84 0.95 1.04 1.07 1.15 1.23 1.34 1.57 1.71 1.61 1.40 1.39 1.47 1.27 1.17 1.08 1.01 0.89 0.78 0.68
0.86 0.79 0.69 0.72 0.73 0.69 0.52 0.43 0.46 0.57 0.72 0.71 0.71 0.66 0.61 0.60 0.60 0.62 0.71 0.85 0.94 0.95 0.88 0.88 1.05 1.14 1.12 1.21 1.23 1.34 1.58 1.67 1.57 1.52 1.35 1.39 1.34 1.33 1.31 1.06 0.95 0.87 0.80